Wetterdaten: Samstag, 03.09.2016
Datum Zeit Temp. Aussen Temp. o. S. +5cm Feuchte Auss BlattFeu 1 Luftdruck Regen Sonnenschein Regendauer Solar Windben Empfang
03.09.2016 00:00 19,2 C 18,9 C 17,2 C 81 % 0 lf 1017,9 hPa 0,0 l/m 0 min 0 min 0 W/m 4,2 km/h (1 Bft) 97,87 %
03.09.2016 00:02 19,2 C 18,9 C 17,2 C 81 % 0 lf 1018,0 hPa 0,0 l/m 0 min 0 min 0 W/m 2,1 km/h (1 Bft) 10,53 %
03.09.2016 00:05 19,2 C 18,9 C 17,2 C 81 % 4 lf 1018,3 hPa 0,0 l/m 0 min 2 min 0 W/m 6,3 km/h (2 Bft) 92,06 %
03.09.2016 00:06 19,2 C 18,9 C 17,2 C 81 % 2 lf 1018,3 hPa 0,0 l/m 0 min 1 min 0 W/m 8,4 km/h (2 Bft) 100,00 %
03.09.2016 00:08 19,2 C 18,9 C 17,2 C 81 % 3 lf 1018,3 hPa 0,0 l/m 0 min 0 min 0 W/m 10,5 km/h (2 Bft) 97,87 %
03.09.2016 00:10 19,2 C 18,9 C 16,7 C 81 % 4 lf 1018,3 hPa 0,0 l/m 0 min 2 min 0 W/m 8,4 km/h (2 Bft) 95,74 %
03.09.2016 00:12 19,2 C 18,3 C 16,7 C 81 % 13 lf 1018,3 hPa 0,0 l/m 0 min 2 min 0 W/m 10,5 km/h (2 Bft) 100,00 %
03.09.2016 00:14 19,1 C 18,3 C 16,7 C 81 % 12 lf 1018,4 hPa 0,0 l/m 0 min 2 min 0 W/m 8,4 km/h (2 Bft) 97,87 %
03.09.2016 00:16 19,1 C 18,3 C 16,7 C 81 % 8 lf 1018,4 hPa 0,0 l/m 0 min 2 min 0 W/m 14,6 km/h (3 Bft) 97,87 %
03.09.2016 00:18 19,1 C 18,3 C 16,7 C 82 % 9 lf 1018,3 hPa 0,0 l/m 0 min 2 min 0 W/m 18,8 km/h (3 Bft) 91,49 %
03.09.2016 00:20 19,1 C 18,3 C 16,7 C 82 % 10 lf 1018,4 hPa 0,0 l/m 0 min 0 min 0 W/m 12,6 km/h (3 Bft) 89,13 %
03.09.2016 00:22 19,1 C 18,3 C 16,7 C 82 % 4 lf 1018,4 hPa 0,0 l/m 0 min 2 min 0 W/m 16,7 km/h (3 Bft) 93,62 %
03.09.2016 00:24 19,1 C 18,3 C 16,7 C 83 % 1 lf 1018,4 hPa 0,0 l/m 0 min 2 min 0 W/m 20,9 km/h (4 Bft) 95,92 %
03.09.2016 00:26 19,0 C 18,3 C 16,7 C 83 % 14 lf 1018,5 hPa 0,0 l/m 0 min 0 min 0 W/m 23,0 km/h (4 Bft) 97,87 %
03.09.2016 00:28 19,0 C 18,3 C 16,7 C 83 % 15 lf 1018,6 hPa 0,0 l/m 0 min 0 min 0 W/m 20,9 km/h (4 Bft) 93,62 %
03.09.2016 00:30 19,0 C 18,3 C 16,7 C 83 % 15 lf 1018,7 hPa 0,0 l/m 0 min 2 min 0 W/m 29,3 km/h (5 Bft) 93,48 %
03.09.2016 00:32 18,9 C 18,3 C 16,7 C 83 % 13 lf 1018,8 hPa 0,0 l/m 0 min 2 min 0 W/m 25,1 km/h (4 Bft) 89,58 %
03.09.2016 00:34 18,9 C 18,3 C 16,7 C 83 % 3 lf 1018,7 hPa 0,0 l/m 0 min 0 min 0 W/m 23,0 km/h (4 Bft) 91,49 %
03.09.2016 00:36 18,8 C 17,8 C 16,7 C 83 % 1 lf 1018,8 hPa 0,0 l/m 0 min 0 min 0 W/m 20,9 km/h (4 Bft) 94,00 %
03.09.2016 00:38 18,8 C 17,8 C 16,1 C 82 % 1 lf 1018,8 hPa 0,0 l/m 0 min 0 min 0 W/m 12,6 km/h (3 Bft) 91,49 %
03.09.2016 00:40 18,7 C 17,8 C 16,1 C 81 % 0 lf 1018,7 hPa 0,0 l/m 0 min 0 min 0 W/m 23,0 km/h (4 Bft) 95,74 %
03.09.2016 00:42 18,5 C 17,8 C 16,1 C 80 % 0 lf 1018,6 hPa 0,0 l/m 0 min 0 min 0 W/m 18,8 km/h (3 Bft) 89,13 %
03.09.2016 00:44 18,4 C 17,8 C 16,1 C 79 % 0 lf 1018,4 hPa 0,0 l/m 0 min 0 min 0 W/m 16,7 km/h (3 Bft) 93,62 %
03.09.2016 00:46 18,3 C 17,2 C 15,6 C 77 % 0 lf 1018,4 hPa 0,0 l/m 0 min 0 min 0 W/m 14,6 km/h (3 Bft) 93,62 %
03.09.2016 00:48 18,3 C 17,2 C 15,6 C 77 % 0 lf 1018,4 hPa 0,0 l/m 0 min 0 min 0 W/m 10,5 km/h (2 Bft) 93,62 %
03.09.2016 00:50 18,2 C 17,2 C 15,6 C 77 % 0 lf 1018,4 hPa 0,0 l/m 0 min 0 min 0 W/m 8,4 km/h (2 Bft) 93,62 %
03.09.2016 00:52 18,2 C 17,2 C 15,0 C 77 % 0 lf 1018,4 hPa 0,0 l/m 0 min 0 min 0 W/m 10,5 km/h (2 Bft) 91,30 %
03.09.2016 00:54 18,1 C 16,7 C 15,0 C 76 % 0 lf 1018,4 hPa 0,0 l/m 0 min 0 min 2 W/m 8,4 km/h (2 Bft) 95,74 %
03.09.2016 00:56 18,1 C 16,7 C 15,0 C 76 % 0 lf 1018,3 hPa 0,0 l/m 0 min 0 min 0 W/m 10,5 km/h (2 Bft) 95,74 %
03.09.2016 00:58 18,0 C 16,7 C 15,0 C 76 % 0 lf 1018,4 hPa 0,0 l/m 0 min 0 min 0 W/m 8,4 km/h (2 Bft) 95,74 %
03.09.2016 01:00 17,9 C 16,7 C 15,0 C 76 % 0 lf 1018,4 hPa 0,0 l/m 0 min 0 min 0 W/m 8,4 km/h (2 Bft) 95,74 %
03.09.2016 01:02 17,9 C 16,7 C 15,0 C 76 % 0 lf 1018,5 hPa 0,0 l/m 0 min 0 min 0 W/m 8,4 km/h (2 Bft) 91,49 %
03.09.2016 01:04 17,8 C 16,7 C 15,0 C 76 % 0 lf 1018,4 hPa 0,0 l/m 0 min 0 min 0 W/m 6,3 km/h (2 Bft) 97,83 %
03.09.2016 01:06 17,8 C 16,7 C 15,0 C 76 % 0 lf 1018,4 hPa 0,0 l/m 0 min 0 min 0 W/m 4,2 km/h (1 Bft) 95,74 %
03.09.2016 01:08 17,8 C 16,7 C 15,0 C 76 % 0 lf 1018,3 hPa 0,0 l/m 0 min 0 min 0 W/m 4,2 km/h (1 Bft) 91,49 %
03.09.2016 01:10 17,7 C 16,7 C 15,0 C 76 % 0 lf 1018,3 hPa 0,0 l/m 0 min 0 min 0 W/m 4,2 km/h (1 Bft) 95,74 %
03.09.2016 01:12 17,7 C 16,7 C 15,0 C 76 % 0 lf 1018,3 hPa 0,0 l/m 0 min 0 min 0 W/m 2,1 km/h (1 Bft) 95,74 %
03.09.2016 01:14 17,7 C 16,7 C 15,0 C 76 % 0 lf 1018,3 hPa 0,0 l/m 0 min 0 min 0 W/m 4,2 km/h (1 Bft) 97,87 %
03.09.2016 01:16 17,7 C 16,7 C 15,0 C 76 % 0 lf 1018,3 hPa 0,0 l/m 0 min 0 min 5 W/m 2,1 km/h (1 Bft) 95,65 %
03.09.2016 01:18 17,6 C 16,7 C 15,0 C 76 % 0 lf 1018,3 hPa 0,0 l/m 0 min 0 min 5 W/m 0,0 km/h (0 Bft) 97,87 %
03.09.2016 01:20 17,6 C 16,7 C 15,0 C 77 % 0 lf 1018,2 hPa 0,0 l/m 0 min 0 min 5 W/m 0,0 km/h (0 Bft) 97,87 %
03.09.2016 01:22 17,6 C 16,7 C 15,0 C 77 % 0 lf 1018,2 hPa 0,0 l/m 0 min 0 min 5 W/m 0,0 km/h (0 Bft) 97,87 %
03.09.2016 01:24 17,5 C 16,7 C 15,0 C 77 % 0 lf 1018,2 hPa 0,0 l/m 0 min 0 min 5 W/m 0,0 km/h (0 Bft) 91,49 %
03.09.2016 01:26 17,5 C 16,7 C 15,0 C 77 % 0 lf 1018,2 hPa 0,0 l/m 0 min 0 min 5 W/m 0,0 km/h (0 Bft) 93,62 %
03.09.2016 01:28 17,5 C 16,7 C 15,0 C 77 % 0 lf 1018,3 hPa 0,0 l/m 0 min 0 min 5 W/m 0,0 km/h (0 Bft) 100,00 %
03.09.2016 01:30 17,4 C 16,7 C 15,0 C 77 % 0 lf 1018,3 hPa 0,0 l/m 0 min 0 min 5 W/m 0,0 km/h (0 Bft) 100,00 %
03.09.2016 01:32 17,4 C 16,7 C 15,0 C 77 % 0 lf 1018,3 hPa 0,0 l/m 0 min 0 min 5 W/m 0,0 km/h (0 Bft) 98,11 %
03.09.2016 01:34 17,4 C 16,7 C 15,0 C 77 % 0 lf 1018,3 hPa 0,0 l/m 0 min 0 min 5 W/m 4,2 km/h (1 Bft) 100,00 %
03.09.2016 01:36 17,4 C 16,7 C 15,0 C 77 % 0 lf 1018,3 hPa 0,0 l/m 0 min 0 min 5 W/m 4,2 km/h (1 Bft) 100,00 %
03.09.2016 01:38 17,4 C 16,7 C 15,0 C 77 % 0 lf 1018,4 hPa 0,0 l/m 0 min 0 min 5 W/m 2,1 km/h (1 Bft) 95,74 %
03.09.2016 01:40 17,3 C 16,7 C 15,0 C 77 % 0 lf 1018,4 hPa 0,0 l/m 0 min 0 min 5 W/m 2,1 km/h (1 Bft) 100,00 %
03.09.2016 01:42 17,3 C 16,7 C 15,0 C 78 % 0 lf 1018,5 hPa 0,0 l/m 0 min 0 min 5 W/m 6,3 km/h (2 Bft) 97,87 %
03.09.2016 01:44 17,3 C 16,7 C 15,0 C 78 % 0 lf 1018,4 hPa 0,0 l/m 0 min 0 min 5 W/m 4,2 km/h (1 Bft) 100,00 %
03.09.2016 01:46 17,3 C 16,7 C 15,0 C 78 % 0 lf 1018,4 hPa 0,0 l/m 0 min 0 min 5 W/m 4,2 km/h (1 Bft) 100,00 %
03.09.2016 01:48 17,3 C 16,7 C 15,0 C 78 % 0 lf 1018,4 hPa 0,0 l/m 0 min 0 min 5 W/m 4,2 km/h (1 Bft) 100,00 %
03.09.2016 01:50 17,2 C 16,7 C 15,0 C 78 % 0 lf 1018,4 hPa 0,0 l/m 0 min 0 min 5 W/m 2,1 km/h (1 Bft) 100,00 %
03.09.2016 01:52 17,2 C 16,7 C 15,0 C 78 % 0 lf 1018,4 hPa 0,0 l/m 0 min 0 min 5 W/m 2,1 km/h (1 Bft) 100,00 %
03.09.2016 01:54 17,2 C 16,7 C 15,0 C 78 % 0 lf 1018,5 hPa 0,0 l/m 0 min 0 min 5 W/m 6,3 km/h (2 Bft) 97,87 %
03.09.2016 01:56 17,2 C 16,7 C 15,0 C 78 % 0 lf 1018,4 hPa 0,0 l/m 0 min 0 min 5 W/m 8,4 km/h (2 Bft) 100,00 %
03.09.2016 01:58 17,2 C 16,7 C 15,0 C 78 % 0 lf 1018,4 hPa 0,0 l/m 0 min 0 min 5 W/m 4,2 km/h (1 Bft) 100,00 %
03.09.2016 02:00 17,1 C 16,7 C 15,0 C 78 % 0 lf 1018,3 hPa 0,0 l/m 0 min 0 min 5 W/m 4,2 km/h (1 Bft) 95,74 %
03.09.2016 02:02 17,1 C 16,7 C 15,0 C 78 % 0 lf 1018,3 hPa 0,0 l/m 0 min 0 min 5 W/m 6,3 km/h (2 Bft) 100,00 %
03.09.2016 02:04 17,1 C 16,7 C 15,0 C 77 % 0 lf 1018,3 hPa 0,0 l/m 0 min 0 min 5 W/m 6,3 km/h (2 Bft) 97,83 %
03.09.2016 02:06 17,0 C 16,7 C 15,0 C 77 % 0 lf 1018,3 hPa 0,0 l/m 0 min 0 min 5 W/m 6,3 km/h (2 Bft) 97,96 %
03.09.2016 02:08 17,0 C 16,7 C 15,0 C 77 % 0 lf 1018,3 hPa 0,0 l/m 0 min 0 min 5 W/m 4,2 km/h (1 Bft) 97,87 %
03.09.2016 02:10 17,0 C 16,7 C 15,0 C 77 % 0 lf 1018,2 hPa 0,0 l/m 0 min 0 min 5 W/m 6,3 km/h (2 Bft) 100,00 %
03.09.2016 02:12 17,0 C 16,1 C 14,4 C 77 % 0 lf 1018,2 hPa 0,0 l/m 0 min 0 min 5 W/m 2,1 km/h (1 Bft) 95,74 %
03.09.2016 02:14 17,0 C 16,1 C 14,4 C 77 % 0 lf 1018,3 hPa 0,0 l/m 0 min 0 min 5 W/m 4,2 km/h (1 Bft) 100,00 %
03.09.2016 02:16 16,9 C 16,1 C 13,9 C 77 % 0 lf 1018,3 hPa 0,0 l/m 0 min 0 min 5 W/m 4,2 km/h (1 Bft) 97,87 %
03.09.2016 02:18 16,9 C 16,1 C 13,9 C 77 % 0 lf 1018,4 hPa 0,0 l/m 0 min 0 min 5 W/m 4,2 km/h (1 Bft) 97,87 %
03.09.2016 02:20 16,9 C 15,6 C 13,9 C 77 % 0 lf 1018,3 hPa 0,0 l/m 0 min 0 min 5 W/m 4,2 km/h (1 Bft) 95,74 %
03.09.2016 02:22 16,9 C 15,6 C 13,9 C 77 % 0 lf 1018,3 hPa 0,0 l/m 0 min 0 min 5 W/m 2,1 km/h (1 Bft) 100,00 %
03.09.2016 02:24 16,9 C 15,6 C 13,9 C 77 % 0 lf 1018,3 hPa 0,0 l/m 0 min 0 min 5 W/m 4,2 km/h (1 Bft) 97,87 %
03.09.2016 02:26 16,9 C 15,6 C 13,3 C 78 % 0 lf 1018,3 hPa 0,0 l/m 0 min 0 min 5 W/m 2,1 km/h (1 Bft) 95,65 %
03.09.2016 02:28 16,8 C 15,6 C 13,3 C 78 % 0 lf 1018,3 hPa 0,0 l/m 0 min 0 min 5 W/m 0,0 km/h (0 Bft) 95,74 %
03.09.2016 02:30 16,8 C 15,6 C 13,3 C 78 % 0 lf 1018,3 hPa 0,0 l/m 0 min 0 min 5 W/m 0,0 km/h (0 Bft) 97,87 %
03.09.2016 02:32 16,8 C 15,6 C 13,3 C 78 % 0 lf 1018,3 hPa 0,0 l/m 0 min 0 min 5 W/m 0,0 km/h (0 Bft) 97,92 %
03.09.2016 02:34 16,8 C 15,6 C 13,3 C 78 % 1 lf 1018,3 hPa 0,0 l/m 0 min 0 min 5 W/m 0,0 km/h (0 Bft) 97,87 %
03.09.2016 02:36 16,7 C 15,0 C 13,3 C 78 % 1 lf 1018,3 hPa 0,0 l/m 0 min 0 min 5 W/m 0,0 km/h (0 Bft) 95,83 %
03.09.2016 02:38 16,7 C 15,0 C 12,8 C 78 % 1 lf 1018,3 hPa 0,0 l/m 0 min 0 min 5 W/m 0,0 km/h (0 Bft) 95,65 %
03.09.2016 02:40 16,7 C 15,0 C 12,8 C 78 % 1 lf 1018,2 hPa 0,0 l/m 0 min 0 min 5 W/m 0,0 km/h (0 Bft) 97,87 %
03.09.2016 02:42 16,6 C 15,0 C 12,8 C 78 % 1 lf 1018,2 hPa 0,0 l/m 0 min 0 min 5 W/m 6,3 km/h (2 Bft) 97,87 %
03.09.2016 02:44 16,6 C 15,0 C 12,8 C 78 % 1 lf 1018,2 hPa 0,0 l/m 0 min 0 min 5 W/m 4,2 km/h (1 Bft) 97,87 %
03.09.2016 02:46 16,6 C 15,0 C 12,8 C 79 % 1 lf 1018,1 hPa 0,0 l/m 0 min 0 min 5 W/m 4,2 km/h (1 Bft) 97,87 %
03.09.2016 02:48 16,5 C 15,0 C 12,8 C 79 % 1 lf 1018,1 hPa 0,0 l/m 0 min 0 min 5 W/m 4,2 km/h (1 Bft) 100,00 %
03.09.2016 02:50 16,4 C 15,0 C 12,8 C 79 % 1 lf 1018,2 hPa 0,0 l/m 0 min 0 min 5 W/m 6,3 km/h (2 Bft) 95,65 %
03.09.2016 02:52 16,4 C 15,0 C 12,8 C 79 % 1 lf 1018,1 hPa 0,0 l/m 0 min 0 min 5 W/m 4,2 km/h (1 Bft) 97,87 %
03.09.2016 02:54 16,4 C 14,4 C 12,8 C 79 % 1 lf 1018,1 hPa 0,0 l/m 0 min 0 min 5 W/m 4,2 km/h (1 Bft) 97,87 %
03.09.2016 02:56 16,3 C 14,4 C 12,8 C 79 % 1 lf 1018,1 hPa 0,0 l/m 0 min 0 min 5 W/m 2,1 km/h (1 Bft) 97,87 %
03.09.2016 02:58 16,3 C 14,4 C 12,8 C 79 % 1 lf 1018,1 hPa 0,0 l/m 0 min 0 min 5 W/m 0,0 km/h (0 Bft) 95,74 %
03.09.2016 03:00 16,2 C 14,4 C 12,8 C 79 % 1 lf 1017,9 hPa 0,0 l/m 0 min 0 min 5 W/m 0,0 km/h (0 Bft) 93,62 %
03.09.2016 03:02 16,2 C 14,4 C 12,8 C 79 % 1 lf 1017,9 hPa 0,0 l/m 0 min 0 min 5 W/m 0,0 km/h (0 Bft) 97,83 %
03.09.2016 03:04 16,1 C 14,4 C 12,8 C 80 % 1 lf 1018,0 hPa 0,0 l/m 0 min 0 min 5 W/m 0,0 km/h (0 Bft) 95,74 %
03.09.2016 03:06 16,1 C 14,4 C 12,8 C 80 % 1 lf 1018,0 hPa 0,0 l/m 0 min 0 min 5 W/m 2,1 km/h (1 Bft) 93,62 %
03.09.2016 03:08 16,1 C 14,4 C 12,8 C 80 % 1 lf 1017,9 hPa 0,0 l/m 0 min 0 min 5 W/m 2,1 km/h (1 Bft) 91,49 %
03.09.2016 03:10 16,0 C 14,4 C 12,8 C 80 % 1 lf 1017,9 hPa 0,0 l/m 0 min 0 min 5 W/m 6,3 km/h (2 Bft) 91,49 %
03.09.2016 03:12 15,9 C 15,0 C 12,8 C 81 % 1 lf 1017,9 hPa 0,0 l/m 0 min 0 min 5 W/m 4,2 km/h (1 Bft) 93,48 %
03.09.2016 03:14 15,9 C 14,4 C 12,8 C 81 % 1 lf 1017,8 hPa 0,0 l/m 0 min 0 min 5 W/m 4,2 km/h (1 Bft) 93,62 %
03.09.2016 03:16 15,9 C 15,0 C 12,8 C 81 % 1 lf 1017,8 hPa 0,0 l/m 0 min 0 min 5 W/m 4,2 km/h (1 Bft) 95,74 %
03.09.2016 03:18 15,8 C 14,4 C 12,8 C 81 % 1 lf 1017,9 hPa 0,0 l/m 0 min 0 min 2 W/m 6,3 km/h (2 Bft) 95,74 %
03.09.2016 03:20 15,8 C 15,0 C 12,8 C 82 % 1 lf 1017,9 hPa 0,0 l/m 0 min 0 min 0 W/m 6,3 km/h (2 Bft) 95,74 %
03.09.2016 03:22 15,8 C 15,0 C 12,8 C 82 % 1 lf 1017,9 hPa 0,0 l/m 0 min 0 min 0 W/m 4,2 km/h (1 Bft) 95,74 %
03.09.2016 03:24 15,7 C 15,0 C 12,8 C 82 % 1 lf 1017,8 hPa 0,0 l/m 0 min 0 min 0 W/m 4,2 km/h (1 Bft) 89,36 %
03.09.2016 03:26 15,7 C 15,0 C 12,8 C 83 % 1 lf 1017,8 hPa 0,0 l/m 0 min 0 min 0 W/m 4,2 km/h (1 Bft) 93,48 %
03.09.2016 03:28 15,7 C 15,0 C 12,8 C 83 % 1 lf 1017,9 hPa 0,0 l/m 0 min 0 min 0 W/m 6,3 km/h (2 Bft) 93,62 %
03.09.2016 03:30 15,6 C 15,0 C 12,8 C 83 % 1 lf 1017,8 hPa 0,0 l/m 0 min 0 min 0 W/m 4,2 km/h (1 Bft) 93,62 %
03.09.2016 03:32 15,6 C 15,0 C 12,8 C 83 % 1 lf 1017,7 hPa 0,0 l/m 0 min 0 min 0 W/m 6,3 km/h (2 Bft) 93,62 %
03.09.2016 03:34 15,6 C 15,0 C 12,8 C 84 % 1 lf 1017,8 hPa 0,0 l/m 0 min 0 min 0 W/m 4,2 km/h (1 Bft) 93,62 %
03.09.2016 03:36 15,6 C 15,0 C 13,3 C 84 % 1 lf 1017,9 hPa 0,0 l/m 0 min 0 min 0 W/m 4,2 km/h (1 Bft) 88,57 %
03.09.2016 03:38 15,5 C 15,0 C 13,3 C 84 % 1 lf 1017,8 hPa 0,0 l/m 0 min 0 min 0 W/m 6,3 km/h (2 Bft) 93,62 %
03.09.2016 03:40 15,5 C 15,0 C 13,3 C 84 % 1 lf 1017,9 hPa 0,0 l/m 0 min 0 min 0 W/m 10,5 km/h (2 Bft) 93,48 %
03.09.2016 03:42 15,4 C 15,0 C 13,3 C 84 % 1 lf 1017,9 hPa 0,0 l/m 0 min 0 min 0 W/m 10,5 km/h (2 Bft) 91,49 %
03.09.2016 03:44 15,4 C 15,6 C 13,9 C 84 % 1 lf 1017,8 hPa 0,0 l/m 0 min 0 min 0 W/m 10,5 km/h (2 Bft) 85,11 %
03.09.2016 03:46 15,4 C 15,6 C 13,9 C 84 % 1 lf 1017,8 hPa 0,0 l/m 0 min 0 min 0 W/m 6,3 km/h (2 Bft) 91,49 %
03.09.2016 03:48 15,4 C 15,6 C 13,9 C 85 % 1 lf 1017,8 hPa 0,0 l/m 0 min 0 min 0 W/m 4,2 km/h (1 Bft) 93,62 %
03.09.2016 03:50 15,4 C 15,6 C 13,9 C 85 % 1 lf 1017,8 hPa 0,0 l/m 0 min 0 min 0 W/m 4,2 km/h (1 Bft) 86,96 %
03.09.2016 03:52 15,4 C 15,6 C 13,9 C 85 % 1 lf 1017,8 hPa 0,0 l/m 0 min 0 min 0 W/m 6,3 km/h (2 Bft) 93,62 %
03.09.2016 03:54 15,4 C 15,6 C 13,9 C 85 % 1 lf 1017,7 hPa 0,0 l/m 0 min 0 min 0 W/m 4,2 km/h (1 Bft) 93,62 %
03.09.2016 03:56 15,4 C 15,6 C 13,9 C 85 % 1 lf 1017,8 hPa 0,0 l/m 0 min 0 min 0 W/m 2,1 km/h (1 Bft) 95,74 %
03.09.2016 03:58 15,3 C 15,6 C 13,9 C 85 % 1 lf 1017,8 hPa 0,0 l/m 0 min 0 min 0 W/m 2,1 km/h (1 Bft) 97,87 %
03.09.2016 04:00 15,3 C 15,6 C 13,9 C 85 % 1 lf 1017,8 hPa 0,0 l/m 0 min 0 min 0 W/m 4,2 km/h (1 Bft) 97,87 %
03.09.2016 04:02 15,3 C 15,6 C 13,9 C 85 % 1 lf 1017,7 hPa 0,0 l/m 0 min 0 min 0 W/m 2,1 km/h (1 Bft) 100,00 %
03.09.2016 04:04 15,3 C 15,6 C 13,9 C 85 % 1 lf 1017,7 hPa 0,0 l/m 0 min 0 min 0 W/m 2,1 km/h (1 Bft) 95,74 %
03.09.2016 04:06 15,4 C 15,6 C 13,9 C 86 % 1 lf 1017,6 hPa 0,0 l/m 0 min 0 min 0 W/m 4,2 km/h (1 Bft) 97,87 %
03.09.2016 04:08 15,4 C 15,6 C 13,9 C 86 % 1 lf 1017,7 hPa 0,0 l/m 0 min 0 min 0 W/m 4,2 km/h (1 Bft) 95,74 %
03.09.2016 04:10 15,4 C 15,6 C 13,9 C 86 % 1 lf 1017,7 hPa 0,0 l/m 0 min 0 min 0 W/m 4,2 km/h (1 Bft) 91,49 %
03.09.2016 04:12 15,4 C 15,6 C 13,9 C 86 % 1 lf 1017,7 hPa 0,0 l/m 0 min 0 min 0 W/m 4,2 km/h (1 Bft) 93,48 %
03.09.2016 04:14 15,4 C 15,6 C 13,9 C 86 % 1 lf 1017,6 hPa 0,0 l/m 0 min 0 min 0 W/m 2,1 km/h (1 Bft) 95,74 %
03.09.2016 04:16 15,4 C 15,6 C 13,9 C 86 % 1 lf 1017,7 hPa 0,0 l/m 0 min 0 min 0 W/m 4,2 km/h (1 Bft) 95,74 %
03.09.2016 04:18 15,4 C 15,6 C 13,9 C 86 % 1 lf 1017,6 hPa 0,0 l/m 0 min 0 min 0 W/m 2,1 km/h (1 Bft) 95,74 %
03.09.2016 04:20 15,4 C 15,6 C 13,9 C 86 % 1 lf 1017,6 hPa 0,0 l/m 0 min 0 min 0 W/m 0,0 km/h (0 Bft) 97,87 %
03.09.2016 04:22 15,4 C 15,6 C 13,9 C 85 % 1 lf 1017,6 hPa 0,0 l/m 0 min 0 min 2 W/m 0,0 km/h (0 Bft) 95,74 %
03.09.2016 04:24 15,4 C 15,6 C 13,9 C 85 % 1 lf 1017,6 hPa 0,0 l/m 0 min 0 min 0 W/m 0,0 km/h (0 Bft) 95,65 %
03.09.2016 04:26 15,4 C 15,6 C 13,9 C 85 % 1 lf 1017,6 hPa 0,0 l/m 0 min 0 min 0 W/m 0,0 km/h (0 Bft) 95,74 %
03.09.2016 04:28 15,4 C 15,6 C 13,9 C 85 % 1 lf 1017,7 hPa 0,0 l/m 0 min 0 min 0 W/m 0,0 km/h (0 Bft) 97,87 %
03.09.2016 04:30 15,4 C 15,6 C 13,9 C 85 % 1 lf 1017,7 hPa 0,0 l/m 0 min 0 min 2 W/m 0,0 km/h (0 Bft) 97,87 %
03.09.2016 04:32 15,4 C 15,6 C 13,9 C 85 % 1 lf 1017,7 hPa 0,0 l/m 0 min 0 min 5 W/m 0,0 km/h (0 Bft) 95,83 %
03.09.2016 04:34 15,4 C 15,6 C 14,4 C 85 % 1 lf 1017,7 hPa 0,0 l/m 0 min 0 min 5 W/m 4,2 km/h (1 Bft) 97,87 %
03.09.2016 04:36 15,4 C 15,6 C 14,4 C 85 % 1 lf 1017,8 hPa 0,0 l/m 0 min 0 min 5 W/m 2,1 km/h (1 Bft) 95,65 %
03.09.2016 04:38 15,4 C 15,6 C 14,4 C 85 % 1 lf 1017,7 hPa 0,0 l/m 0 min 0 min 5 W/m 4,2 km/h (1 Bft) 97,87 %
03.09.2016 04:40 15,4 C 15,6 C 14,4 C 86 % 1 lf 1017,7 hPa 0,0 l/m 0 min 0 min 5 W/m 4,2 km/h (1 Bft) 100,00 %
03.09.2016 04:42 15,5 C 15,6 C 13,9 C 86 % 1 lf 1017,8 hPa 0,0 l/m 0 min 0 min 5 W/m 4,2 km/h (1 Bft) 100,00 %
03.09.2016 04:44 15,5 C 15,6 C 13,9 C 86 % 1 lf 1017,7 hPa 0,0 l/m 0 min 0 min 5 W/m 4,2 km/h (1 Bft) 97,87 %
03.09.2016 04:46 15,5 C 15,6 C 13,9 C 86 % 1 lf 1017,6 hPa 0,0 l/m 0 min 0 min 5 W/m 4,2 km/h (1 Bft) 100,00 %
03.09.2016 04:48 15,5 C 15,6 C 13,3 C 86 % 1 lf 1017,6 hPa 0,0 l/m 0 min 0 min 5 W/m 6,3 km/h (2 Bft) 100,00 %
03.09.2016 04:50 15,5 C 15,6 C 13,3 C 86 % 1 lf 1017,5 hPa 0,0 l/m 0 min 0 min 5 W/m 6,3 km/h (2 Bft) 100,00 %
03.09.2016 04:52 15,5 C 15,6 C 13,3 C 86 % 1 lf 1017,5 hPa 0,0 l/m 0 min 0 min 5 W/m 4,2 km/h (1 Bft) 100,00 %
03.09.2016 04:54 15,5 C 15,6 C 13,3 C 86 % 1 lf 1017,5 hPa 0,0 l/m 0 min 0 min 5 W/m 6,3 km/h (2 Bft) 95,74 %
03.09.2016 04:56 15,5 C 15,6 C 13,3 C 86 % 1 lf 1017,6 hPa 0,0 l/m 0 min 0 min 5 W/m 4,2 km/h (1 Bft) 100,00 %
03.09.2016 04:58 15,5 C 15,6 C 13,3 C 86 % 1 lf 1017,6 hPa 0,0 l/m 0 min 0 min 5 W/m 6,3 km/h (2 Bft) 100,00 %
03.09.2016 05:00 15,5 C 15,6 C 13,3 C 86 % 1 lf 1017,6 hPa 0,0 l/m 0 min 0 min 5 W/m 6,3 km/h (2 Bft) 97,87 %
03.09.2016 05:02 15,5 C 15,0 C 13,3 C 86 % 1 lf 1017,4 hPa 0,0 l/m 0 min 0 min 5 W/m 6,3 km/h (2 Bft) 97,87 %
03.09.2016 05:04 15,5 C 15,0 C 13,3 C 86 % 1 lf 1017,4 hPa 0,0 l/m 0 min 0 min 5 W/m 10,5 km/h (2 Bft) 95,74 %
03.09.2016 05:06 15,5 C 15,0 C 13,3 C 86 % 1 lf 1017,5 hPa 0,0 l/m 0 min 0 min 5 W/m 6,3 km/h (2 Bft) 100,00 %
03.09.2016 05:08 15,5 C 15,0 C 13,3 C 86 % 1 lf 1017,5 hPa 0,0 l/m 0 min 0 min 5 W/m 4,2 km/h (1 Bft) 95,74 %
03.09.2016 05:10 15,5 C 15,0 C 12,8 C 86 % 1 lf 1017,5 hPa 0,0 l/m 0 min 0 min 5 W/m 4,2 km/h (1 Bft) 100,00 %
03.09.2016 05:12 15,4 C 15,0 C 12,8 C 85 % 1 lf 1017,5 hPa 0,0 l/m 0 min 0 min 5 W/m 8,4 km/h (2 Bft) 97,87 %
03.09.2016 05:14 15,4 C 15,0 C 12,8 C 85 % 1 lf 1017,4 hPa 0,0 l/m 0 min 0 min 5 W/m 8,4 km/h (2 Bft) 100,00 %
03.09.2016 05:16 15,4 C 15,0 C 12,8 C 85 % 1 lf 1017,4 hPa 0,0 l/m 0 min 0 min 5 W/m 4,2 km/h (1 Bft) 100,00 %
03.09.2016 05:18 15,4 C 15,0 C 12,8 C 85 % 1 lf 1017,4 hPa 0,0 l/m 0 min 0 min 5 W/m 8,4 km/h (2 Bft) 97,87 %
03.09.2016 05:20 15,4 C 15,0 C 13,3 C 85 % 1 lf 1017,4 hPa 0,0 l/m 0 min 0 min 5 W/m 6,3 km/h (2 Bft) 100,00 %
03.09.2016 05:22 15,4 C 15,0 C 13,3 C 85 % 1 lf 1017,4 hPa 0,0 l/m 0 min 0 min 5 W/m 8,4 km/h (2 Bft) 97,83 %
03.09.2016 05:24 15,4 C 15,0 C 13,3 C 85 % 1 lf 1017,4 hPa 0,0 l/m 0 min 0 min 5 W/m 8,4 km/h (2 Bft) 100,00 %
03.09.2016 05:26 15,4 C 15,0 C 13,3 C 85 % 1 lf 1017,4 hPa 0,0 l/m 0 min 0 min 5 W/m 8,4 km/h (2 Bft) 97,87 %
03.09.2016 05:28 15,4 C 15,0 C 12,8 C 85 % 1 lf 1017,4 hPa 0,0 l/m 0 min 0 min 5 W/m 8,4 km/h (2 Bft) 100,00 %
03.09.2016 05:30 15,3 C 15,0 C 12,8 C 85 % 1 lf 1017,3 hPa 0,0 l/m 0 min 0 min 5 W/m 8,4 km/h (2 Bft) 95,74 %
03.09.2016 05:32 15,3 C 15,0 C 12,8 C 85 % 1 lf 1017,3 hPa 0,0 l/m 0 min 0 min 5 W/m 6,3 km/h (2 Bft) 100,00 %
03.09.2016 05:34 15,3 C 15,0 C 12,8 C 85 % 1 lf 1017,4 hPa 0,0 l/m 0 min 0 min 5 W/m 6,3 km/h (2 Bft) 97,83 %
03.09.2016 05:36 15,3 C 15,0 C 13,3 C 85 % 1 lf 1017,4 hPa 0,0 l/m 0 min 0 min 5 W/m 8,4 km/h (2 Bft) 100,00 %
03.09.2016 05:38 15,3 C 15,0 C 13,3 C 86 % 1 lf 1017,4 hPa 0,0 l/m 0 min 0 min 5 W/m 8,4 km/h (2 Bft) 100,00 %
03.09.2016 05:40 15,3 C 15,0 C 13,3 C 86 % 1 lf 1017,3 hPa 0,0 l/m 0 min 0 min 5 W/m 6,3 km/h (2 Bft) 100,00 %
03.09.2016 05:42 15,3 C 15,6 C 13,3 C 86 % 1 lf 1017,3 hPa 0,0 l/m 0 min 0 min 5 W/m 14,6 km/h (3 Bft) 100,00 %
03.09.2016 05:44 15,3 C 15,0 C 13,3 C 86 % 1 lf 1017,3 hPa 0,0 l/m 0 min 0 min 5 W/m 8,4 km/h (2 Bft) 97,87 %
03.09.2016 05:46 15,3 C 15,0 C 13,3 C 86 % 1 lf 1017,3 hPa 0,0 l/m 0 min 0 min 5 W/m 12,6 km/h (3 Bft) 100,00 %
03.09.2016 05:48 15,3 C 15,6 C 13,9 C 86 % 1 lf 1017,4 hPa 0,0 l/m 0 min 0 min 5 W/m 10,5 km/h (2 Bft) 100,00 %
03.09.2016 05:50 15,3 C 15,6 C 13,9 C 86 % 1 lf 1017,3 hPa 0,0 l/m 0 min 0 min 5 W/m 12,6 km/h (3 Bft) 95,74 %
03.09.2016 05:52 15,3 C 15,6 C 13,9 C 86 % 1 lf 1017,3 hPa 0,0 l/m 0 min 0 min 5 W/m 8,4 km/h (2 Bft) 100,00 %
03.09.2016 05:54 15,3 C 15,6 C 13,9 C 86 % 1 lf 1017,4 hPa 0,0 l/m 0 min 0 min 5 W/m 12,6 km/h (3 Bft) 97,87 %
03.09.2016 05:56 15,3 C 15,6 C 13,9 C 86 % 1 lf 1017,4 hPa 0,0 l/m 0 min 0 min 5 W/m 10,5 km/h (2 Bft) 100,00 %
03.09.2016 05:58 15,3 C 15,6 C 13,9 C 86 % 1 lf 1017,4 hPa 0,0 l/m 0 min 0 min 5 W/m 10,5 km/h (2 Bft) 97,87 %
03.09.2016 06:00 15,3 C 15,6 C 14,4 C 86 % 1 lf 1017,4 hPa 0,0 l/m 0 min 0 min 5 W/m 12,6 km/h (3 Bft) 97,87 %
03.09.2016 06:02 15,4 C 15,6 C 14,4 C 86 % 1 lf 1017,4 hPa 0,0 l/m 0 min 0 min 5 W/m 10,5 km/h (2 Bft) 91,49 %
03.09.2016 06:04 15,4 C 15,6 C 14,4 C 86 % 1 lf 1017,5 hPa 0,0 l/m 0 min 0 min 5 W/m 12,6 km/h (3 Bft) 93,62 %
03.09.2016 06:06 15,4 C 15,6 C 14,4 C 86 % 1 lf 1017,5 hPa 0,0 l/m 0 min 0 min 5 W/m 8,4 km/h (2 Bft) 95,74 %
03.09.2016 06:08 15,4 C 15,6 C 14,4 C 86 % 1 lf 1017,5 hPa 0,0 l/m 0 min 0 min 5 W/m 12,6 km/h (3 Bft) 95,65 %
03.09.2016 06:10 15,4 C 15,6 C 14,4 C 86 % 0 lf 1017,5 hPa 0,0 l/m 0 min 0 min 5 W/m 12,6 km/h (3 Bft) 93,62 %
03.09.2016 06:12 15,5 C 16,1 C 14,4 C 86 % 0 lf 1017,5 hPa 0,0 l/m 0 min 0 min 5 W/m 12,6 km/h (3 Bft) 93,62 %
03.09.2016 06:14 15,6 C 16,1 C 14,4 C 86 % 1 lf 1017,5 hPa 0,0 l/m 0 min 0 min 5 W/m 10,5 km/h (2 Bft) 95,74 %
03.09.2016 06:16 15,6 C 16,1 C 14,4 C 86 % 1 lf 1017,6 hPa 0,0 l/m 0 min 0 min 5 W/m 10,5 km/h (2 Bft) 95,74 %
03.09.2016 06:18 15,6 C 16,1 C 14,4 C 86 % 0 lf 1017,6 hPa 0,0 l/m 0 min 0 min 5 W/m 12,6 km/h (3 Bft) 95,74 %
03.09.2016 06:20 15,6 C 16,1 C 14,4 C 86 % 1 lf 1017,6 hPa 0,0 l/m 0 min 0 min 5 W/m 14,6 km/h (3 Bft) 93,48 %
03.09.2016 06:22 15,7 C 16,1 C 14,4 C 85 % 1 lf 1017,7 hPa 0,0 l/m 0 min 0 min 5 W/m 12,6 km/h (3 Bft) 91,49 %
03.09.2016 06:24 15,7 C 15,6 C 14,4 C 86 % 1 lf 1017,6 hPa 0,0 l/m 0 min 0 min 5 W/m 10,5 km/h (2 Bft) 93,62 %
03.09.2016 06:26 15,7 C 15,6 C 14,4 C 86 % 1 lf 1017,7 hPa 0,0 l/m 0 min 0 min 5 W/m 8,4 km/h (2 Bft) 85,11 %
03.09.2016 06:28 15,7 C 15,6 C 14,4 C 85 % 1 lf 1017,7 hPa 0,0 l/m 0 min 0 min 0 W/m 8,4 km/h (2 Bft) 93,62 %
03.09.2016 06:30 15,7 C 15,6 C 13,9 C 85 % 1 lf 1017,8 hPa 0,0 l/m 0 min 0 min 0 W/m 6,3 km/h (2 Bft) 91,49 %
03.09.2016 06:32 15,7 C 15,6 C 13,9 C 85 % 1 lf 1017,7 hPa 0,0 l/m 0 min 0 min 0 W/m 12,6 km/h (3 Bft) 93,48 %
03.09.2016 06:34 15,7 C 15,6 C 13,9 C 85 % 1 lf 1017,8 hPa 0,0 l/m 0 min 0 min 0 W/m 6,3 km/h (2 Bft) 91,49 %
03.09.2016 06:36 15,7 C 15,6 C 13,9 C 85 % 1 lf 1017,9 hPa 0,0 l/m 0 min 0 min 0 W/m 10,5 km/h (2 Bft) 91,43 %
03.09.2016 06:38 15,7 C 15,6 C 13,9 C 85 % 1 lf 1017,8 hPa 0,0 l/m 0 min 0 min 7 W/m 10,5 km/h (2 Bft) 90,57 %
03.09.2016 06:40 15,8 C 15,6 C 13,9 C 85 % 1 lf 1017,8 hPa 0,0 l/m 0 min 0 min 7 W/m 14,6 km/h (3 Bft) 93,62 %
03.09.2016 06:42 15,7 C 15,6 C 13,9 C 85 % 1 lf 1017,8 hPa 0,0 l/m 0 min 0 min 7 W/m 10,5 km/h (2 Bft) 89,36 %
03.09.2016 06:44 15,7 C 15,6 C 13,9 C 85 % 1 lf 1017,8 hPa 0,0 l/m 0 min 0 min 7 W/m 10,5 km/h (2 Bft) 91,49 %
03.09.2016 06:46 15,7 C 15,6 C 13,9 C 85 % 1 lf 1017,7 hPa 0,0 l/m 0 min 0 min 7 W/m 12,6 km/h (3 Bft) 92,50 %
03.09.2016 06:48 15,7 C 15,6 C 13,9 C 85 % 1 lf 1017,9 hPa 0,0 l/m 0 min 0 min 8 W/m 12,6 km/h (3 Bft) 96,23 %
03.09.2016 06:50 15,7 C 15,6 C 13,9 C 85 % 1 lf 1017,8 hPa 0,0 l/m 0 min 0 min 9 W/m 8,4 km/h (2 Bft) 97,87 %
03.09.2016 06:52 15,7 C 15,6 C 13,9 C 85 % 1 lf 1017,8 hPa 0,0 l/m 0 min 0 min 9 W/m 10,5 km/h (2 Bft) 92,68 %
03.09.2016 06:54 15,7 C 15,6 C 13,9 C 85 % 1 lf 1017,8 hPa 0,0 l/m 0 min 0 min 9 W/m 10,5 km/h (2 Bft) 94,34 %
03.09.2016 06:56 15,7 C 15,6 C 13,9 C 85 % 1 lf 1017,7 hPa 0,0 l/m 0 min 0 min 10 W/m 8,4 km/h (2 Bft) 95,65 %
03.09.2016 06:58 15,7 C 15,6 C 13,9 C 85 % 1 lf 1017,8 hPa 0,0 l/m 0 min 0 min 11 W/m 8,4 km/h (2 Bft) 89,36 %
03.09.2016 07:00 15,7 C 15,0 C 13,9 C 85 % 1 lf 1017,8 hPa 0,0 l/m 0 min 0 min 11 W/m 8,4 km/h (2 Bft) 93,62 %
03.09.2016 07:02 15,7 C 15,0 C 13,9 C 85 % 1 lf 1017,7 hPa 0,0 l/m 0 min 0 min 12 W/m 8,4 km/h (2 Bft) 92,68 %
03.09.2016 07:04 15,6 C 15,0 C 13,3 C 85 % 1 lf 1017,7 hPa 0,0 l/m 0 min 0 min 14 W/m 12,6 km/h (3 Bft) 96,23 %
03.09.2016 07:06 15,6 C 15,0 C 13,3 C 85 % 1 lf 1017,7 hPa 0,0 l/m 0 min 0 min 15 W/m 8,4 km/h (2 Bft) 96,15 %
03.09.2016 07:08 15,6 C 15,0 C 13,9 C 85 % 1 lf 1017,8 hPa 0,0 l/m 0 min 0 min 18 W/m 8,4 km/h (2 Bft) 93,62 %
03.09.2016 07:10 15,6 C 15,0 C 13,9 C 85 % 1 lf 1017,8 hPa 0,0 l/m 2 min 0 min 19 W/m 10,5 km/h (2 Bft) 91,49 %
03.09.2016 07:12 15,6 C 15,0 C 13,3 C 85 % 1 lf 1017,8 hPa 0,0 l/m 2 min 0 min 21 W/m 10,5 km/h (2 Bft) 95,74 %
03.09.2016 07:14 15,6 C 15,0 C 13,3 C 85 % 1 lf 1017,8 hPa 0,0 l/m 0 min 0 min 23 W/m 6,3 km/h (2 Bft) 97,87 %
03.09.2016 07:16 15,6 C 15,0 C 13,9 C 85 % 1 lf 1017,8 hPa 0,0 l/m 0 min 0 min 25 W/m 8,4 km/h (2 Bft) 95,74 %
03.09.2016 07:18 15,5 C 15,6 C 13,9 C 85 % 1 lf 1017,9 hPa 0,0 l/m 0 min 0 min 26 W/m 12,6 km/h (3 Bft) 97,83 %
03.09.2016 07:20 15,5 C 15,6 C 13,9 C 85 % 1 lf 1017,9 hPa 0,0 l/m 0 min 0 min 28 W/m 12,6 km/h (3 Bft) 97,87 %
03.09.2016 07:22 15,5 C 15,6 C 13,9 C 85 % 1 lf 1017,7 hPa 0,0 l/m 0 min 0 min 31 W/m 8,4 km/h (2 Bft) 95,74 %
03.09.2016 07:24 15,5 C 15,6 C 13,9 C 85 % 1 lf 1017,8 hPa 0,0 l/m 0 min 0 min 33 W/m 10,5 km/h (2 Bft) 97,87 %
03.09.2016 07:26 15,4 C 15,6 C 13,9 C 85 % 1 lf 1017,7 hPa 0,0 l/m 0 min 0 min 35 W/m 10,5 km/h (2 Bft) 95,74 %
03.09.2016 07:28 15,4 C 15,6 C 13,9 C 86 % 1 lf 1017,7 hPa 0,0 l/m 0 min 0 min 38 W/m 10,5 km/h (2 Bft) 95,74 %
03.09.2016 07:30 15,4 C 15,6 C 13,9 C 86 % 1 lf 1017,8 hPa 0,0 l/m 0 min 0 min 40 W/m 8,4 km/h (2 Bft) 97,83 %
03.09.2016 07:32 15,4 C 15,6 C 13,9 C 86 % 1 lf 1017,8 hPa 0,0 l/m 0 min 0 min 42 W/m 8,4 km/h (2 Bft) 93,62 %
03.09.2016 07:34 15,4 C 15,6 C 13,9 C 86 % 1 lf 1017,8 hPa 0,0 l/m 0 min 0 min 44 W/m 14,6 km/h (3 Bft) 97,87 %
03.09.2016 07:36 15,4 C 15,6 C 13,9 C 86 % 1 lf 1017,7 hPa 0,0 l/m 0 min 0 min 46 W/m 12,6 km/h (3 Bft) 97,14 %
03.09.2016 07:38 15,4 C 15,6 C 13,9 C 85 % 1 lf 1017,8 hPa 0,0 l/m 0 min 0 min 47 W/m 10,5 km/h (2 Bft) 97,87 %
03.09.2016 07:40 15,4 C 15,6 C 13,9 C 85 % 1 lf 1017,9 hPa 0,0 l/m 0 min 0 min 48 W/m 8,4 km/h (2 Bft) 95,74 %
03.09.2016 07:42 15,4 C 15,6 C 13,9 C 85 % 1 lf 1017,9 hPa 0,0 l/m 0 min 0 min 50 W/m 12,6 km/h (3 Bft) 100,00 %
03.09.2016 07:44 15,4 C 15,6 C 14,4 C 85 % 1 lf 1017,9 hPa 0,0 l/m 0 min 0 min 53 W/m 12,6 km/h (3 Bft) 97,87 %
03.09.2016 07:46 15,4 C 15,6 C 14,4 C 85 % 1 lf 1018,0 hPa 0,0 l/m 0 min 0 min 55 W/m 12,6 km/h (3 Bft) 97,83 %
03.09.2016 07:48 15,4 C 15,6 C 14,4 C 85 % 1 lf 1017,9 hPa 0,0 l/m 0 min 0 min 58 W/m 10,5 km/h (2 Bft) 97,87 %
03.09.2016 07:50 15,4 C 15,6 C 14,4 C 85 % 0 lf 1018,0 hPa 0,0 l/m 0 min 0 min 61 W/m 12,6 km/h (3 Bft) 97,87 %
03.09.2016 07:52 15,4 C 15,6 C 14,4 C 85 % 0 lf 1018,0 hPa 0,0 l/m 0 min 0 min 63 W/m 14,6 km/h (3 Bft) 95,74 %
03.09.2016 07:54 15,4 C 15,6 C 14,4 C 85 % 0 lf 1018,0 hPa 0,0 l/m 0 min 0 min 66 W/m 10,5 km/h (2 Bft) 97,87 %
03.09.2016 07:56 15,4 C 15,6 C 14,4 C 85 % 0 lf 1017,9 hPa 0,0 l/m 0 min 0 min 68 W/m 10,5 km/h (2 Bft) 97,83 %
03.09.2016 07:58 15,4 C 15,6 C 14,4 C 85 % 0 lf 1017,9 hPa 0,0 l/m 0 min 0 min 70 W/m 10,5 km/h (2 Bft) 95,74 %
03.09.2016 08:00 15,4 C 16,1 C 14,4 C 85 % 0 lf 1018,0 hPa 0,0 l/m 0 min 0 min 73 W/m 10,5 km/h (2 Bft) 97,87 %
03.09.2016 08:02 15,4 C 16,1 C 14,4 C 84 % 0 lf 1017,9 hPa 0,0 l/m 0 min 0 min 74 W/m 16,7 km/h (3 Bft) 93,62 %
03.09.2016 08:04 15,4 C 16,1 C 14,4 C 84 % 0 lf 1017,9 hPa 0,0 l/m 0 min 0 min 77 W/m 10,5 km/h (2 Bft) 97,87 %
03.09.2016 08:06 15,4 C 16,1 C 14,4 C 84 % 0 lf 1017,9 hPa 0,0 l/m 0 min 0 min 79 W/m 12,6 km/h (3 Bft) 97,87 %
03.09.2016 08:08 15,4 C 16,1 C 14,4 C 84 % 0 lf 1018,0 hPa 0,0 l/m 0 min 0 min 83 W/m 12,6 km/h (3 Bft) 93,48 %
03.09.2016 08:10 15,4 C 16,1 C 15,0 C 84 % 0 lf 1018,0 hPa 0,0 l/m 0 min 0 min 89 W/m 14,6 km/h (3 Bft) 100,00 %
03.09.2016 08:12 15,4 C 16,1 C 15,0 C 83 % 0 lf 1017,9 hPa 0,0 l/m 0 min 0 min 94 W/m 12,6 km/h (3 Bft) 97,87 %
03.09.2016 08:14 15,4 C 16,1 C 15,0 C 83 % 0 lf 1017,9 hPa 0,0 l/m 0 min 0 min 100 W/m 10,5 km/h (2 Bft) 97,87 %
03.09.2016 08:16 15,4 C 16,7 C 15,0 C 83 % 0 lf 1017,9 hPa 0,0 l/m 2 min 0 min 105 W/m 10,5 km/h (2 Bft) 95,74 %
03.09.2016 08:18 15,4 C 16,7 C 15,0 C 83 % 0 lf 1017,9 hPa 0,0 l/m 2 min 0 min 109 W/m 12,6 km/h (3 Bft) 97,87 %
03.09.2016 08:20 15,4 C 16,7 C 15,0 C 83 % 0 lf 1017,9 hPa 0,0 l/m 2 min 0 min 115 W/m 12,6 km/h (3 Bft) 95,65 %
03.09.2016 08:22 15,5 C 16,7 C 15,0 C 82 % 0 lf 1017,9 hPa 0,0 l/m 2 min 0 min 118 W/m 12,6 km/h (3 Bft) 97,87 %
03.09.2016 08:24 15,5 C 16,7 C 15,0 C 82 % 0 lf 1017,9 hPa 0,0 l/m 2 min 0 min 121 W/m 12,6 km/h (3 Bft) 95,74 %
03.09.2016 08:26 15,6 C 16,7 C 15,0 C 82 % 0 lf 1018,0 hPa 0,0 l/m 2 min 0 min 127 W/m 8,4 km/h (2 Bft) 97,87 %
03.09.2016 08:28 15,6 C 16,7 C 15,0 C 82 % 0 lf 1018,0 hPa 0,0 l/m 2 min 0 min 132 W/m 12,6 km/h (3 Bft) 97,87 %
03.09.2016 08:30 15,6 C 17,2 C 15,0 C 82 % 0 lf 1017,9 hPa 0,0 l/m 2 min 0 min 141 W/m 8,4 km/h (2 Bft) 97,87 %
03.09.2016 08:32 15,6 C 17,2 C 15,6 C 82 % 0 lf 1017,9 hPa 0,0 l/m 2 min 0 min 153 W/m 12,6 km/h (3 Bft) 97,83 %
03.09.2016 08:34 15,6 C 17,2 C 15,6 C 82 % 0 lf 1017,9 hPa 0,0 l/m 2 min 0 min 161 W/m 12,6 km/h (3 Bft) 100,00 %
03.09.2016 08:36 15,7 C 17,2 C 15,6 C 82 % 0 lf 1017,9 hPa 0,0 l/m 2 min 0 min 171 W/m 10,5 km/h (2 Bft) 100,00 %
03.09.2016 08:38 15,7 C 17,8 C 15,6 C 82 % 0 lf 1017,9 hPa 0,0 l/m 2 min 0 min 178 W/m 12,6 km/h (3 Bft) 100,00 %
03.09.2016 08:40 15,8 C 17,8 C 15,6 C 82 % 0 lf 1017,9 hPa 0,0 l/m 2 min 0 min 196 W/m 18,8 km/h (3 Bft) 100,00 %
03.09.2016 08:42 15,8 C 17,8 C 15,6 C 81 % 0 lf 1017,9 hPa 0,0 l/m 2 min 0 min 203 W/m 16,7 km/h (3 Bft) 100,00 %
03.09.2016 08:44 15,9 C 17,8 C 16,1 C 81 % 0 lf 1018,0 hPa 0,0 l/m 2 min 0 min 202 W/m 16,7 km/h (3 Bft) 97,87 %
03.09.2016 08:46 15,9 C 18,3 C 16,1 C 81 % 0 lf 1018,0 hPa 0,0 l/m 2 min 0 min 205 W/m 10,5 km/h (2 Bft) 95,74 %
03.09.2016 08:48 15,9 C 18,9 C 16,1 C 81 % 0 lf 1018,0 hPa 0,0 l/m 2 min 0 min 190 W/m 10,5 km/h (2 Bft) 97,87 %
03.09.2016 08:50 16,0 C 18,9 C 16,1 C 81 % 0 lf 1018,0 hPa 0,0 l/m 2 min 0 min 183 W/m 14,6 km/h (3 Bft) 97,87 %
03.09.2016 08:52 16,1 C 18,3 C 16,1 C 81 % 0 lf 1017,9 hPa 0,0 l/m 2 min 0 min 182 W/m 16,7 km/h (3 Bft) 97,83 %
03.09.2016 08:54 16,1 C 18,9 C 16,7 C 81 % 0 lf 1018,0 hPa 0,0 l/m 2 min 0 min 188 W/m 10,5 km/h (2 Bft) 97,87 %
03.09.2016 08:56 16,2 C 18,9 C 16,7 C 81 % 0 lf 1018,0 hPa 0,0 l/m 2 min 0 min 187 W/m 12,6 km/h (3 Bft) 93,62 %
03.09.2016 08:58 16,2 C 18,3 C 16,7 C 80 % 0 lf 1018,1 hPa 0,0 l/m 2 min 0 min 192 W/m 18,8 km/h (3 Bft) 95,74 %
03.09.2016 09:00 16,3 C 18,3 C 16,1 C 80 % 0 lf 1018,0 hPa 0,0 l/m 2 min 0 min 190 W/m 16,7 km/h (3 Bft) 95,74 %
03.09.2016 09:02 16,3 C 18,3 C 16,7 C 80 % 0 lf 1018,0 hPa 0,0 l/m 2 min 0 min 190 W/m 16,7 km/h (3 Bft) 97,87 %
03.09.2016 09:04 16,3 C 18,3 C 16,7 C 80 % 0 lf 1018,1 hPa 0,0 l/m 2 min 0 min 190 W/m 12,6 km/h (3 Bft) 97,83 %
03.09.2016 09:06 16,4 C 18,3 C 16,7 C 80 % 0 lf 1018,2 hPa 0,0 l/m 2 min 0 min 186 W/m 8,4 km/h (2 Bft) 93,62 %
03.09.2016 09:08 16,4 C 18,3 C 16,7 C 80 % 0 lf 1018,3 hPa 0,0 l/m 2 min 0 min 183 W/m 12,6 km/h (3 Bft) 97,87 %
03.09.2016 09:10 16,4 C 18,3 C 16,7 C 80 % 0 lf 1018,2 hPa 0,0 l/m 2 min 0 min 175 W/m 8,4 km/h (2 Bft) 95,74 %
03.09.2016 09:12 16,5 C 17,8 C 16,7 C 80 % 0 lf 1018,2 hPa 0,0 l/m 0 min 0 min 172 W/m 10,5 km/h (2 Bft) 97,96 %
03.09.2016 09:14 16,5 C 18,3 C 16,7 C 81 % 0 lf 1018,3 hPa 0,0 l/m 0 min 0 min 172 W/m 8,4 km/h (2 Bft) 91,49 %
03.09.2016 09:16 16,6 C 18,3 C 16,7 C 81 % 0 lf 1018,3 hPa 0,0 l/m 0 min 0 min 176 W/m 10,5 km/h (2 Bft) 91,30 %
03.09.2016 09:18 16,6 C 18,3 C 16,7 C 81 % 0 lf 1018,3 hPa 0,0 l/m 0 min 0 min 181 W/m 8,4 km/h (2 Bft) 97,87 %
03.09.2016 09:20 16,7 C 18,9 C 17,2 C 81 % 0 lf 1018,3 hPa 0,0 l/m 2 min 0 min 186 W/m 12,6 km/h (3 Bft) 95,74 %
03.09.2016 09:22 16,7 C 18,3 C 17,2 C 81 % 0 lf 1018,3 hPa 0,0 l/m 0 min 0 min 184 W/m 10,5 km/h (2 Bft) 95,74 %
03.09.2016 09:24 16,7 C 18,9 C 17,2 C 81 % 0 lf 1018,4 hPa 0,0 l/m 0 min 0 min 187 W/m 6,3 km/h (2 Bft) 97,87 %
03.09.2016 09:26 16,8 C 18,9 C 17,2 C 81 % 0 lf 1018,4 hPa 0,0 l/m 2 min 0 min 197 W/m 10,5 km/h (2 Bft) 95,65 %
03.09.2016 09:28 16,8 C 18,9 C 17,8 C 81 % 0 lf 1018,4 hPa 0,0 l/m 2 min 0 min 203 W/m 6,3 km/h (2 Bft) 95,74 %
03.09.2016 09:30 16,8 C 18,9 C 17,8 C 81 % 0 lf 1018,4 hPa 0,0 l/m 2 min 0 min 210 W/m 10,5 km/h (2 Bft) 95,74 %
03.09.2016 09:32 16,9 C 19,4 C 17,8 C 81 % 0 lf 1018,4 hPa 0,0 l/m 2 min 0 min 215 W/m 8,4 km/h (2 Bft) 94,44 %
03.09.2016 09:34 16,9 C 18,9 C 17,8 C 81 % 0 lf 1018,4 hPa 0,0 l/m 2 min 0 min 215 W/m 14,6 km/h (3 Bft) 95,74 %
03.09.2016 09:36 17,0 C 18,9 C 17,8 C 81 % 0 lf 1018,5 hPa 0,0 l/m 2 min 0 min 217 W/m 10,5 km/h (2 Bft) 98,28 %
03.09.2016 09:38 17,0 C 19,4 C 17,8 C 81 % 0 lf 1018,5 hPa 0,0 l/m 2 min 0 min 216 W/m 12,6 km/h (3 Bft) 95,65 %
03.09.2016 09:40 17,1 C 18,9 C 17,8 C 82 % 0 lf 1018,4 hPa 0,0 l/m 2 min 0 min 208 W/m 14,6 km/h (3 Bft) 97,87 %
03.09.2016 09:42 17,1 C 18,9 C 17,8 C 82 % 0 lf 1018,4 hPa 0,0 l/m 0 min 0 min 200 W/m 12,6 km/h (3 Bft) 95,74 %
03.09.2016 09:44 17,2 C 18,9 C 17,8 C 81 % 0 lf 1018,4 hPa 0,0 l/m 0 min 0 min 188 W/m 10,5 km/h (2 Bft) 97,87 %
03.09.2016 09:46 17,2 C 19,4 C 17,8 C 82 % 0 lf 1018,4 hPa 0,0 l/m 0 min 0 min 189 W/m 12,6 km/h (3 Bft) 97,87 %
03.09.2016 09:48 17,2 C 18,9 C 17,8 C 81 % 0 lf 1018,4 hPa 0,0 l/m 0 min 0 min 188 W/m 10,5 km/h (2 Bft) 93,62 %
03.09.2016 09:50 17,3 C 18,9 C 17,8 C 81 % 0 lf 1018,4 hPa 0,0 l/m 0 min 0 min 185 W/m 12,6 km/h (3 Bft) 93,48 %
03.09.2016 09:52 17,3 C 18,9 C 17,8 C 81 % 0 lf 1018,5 hPa 0,0 l/m 0 min 0 min 184 W/m 10,5 km/h (2 Bft) 97,87 %
03.09.2016 09:54 17,3 C 18,9 C 17,8 C 81 % 0 lf 1018,5 hPa 0,0 l/m 0 min 0 min 183 W/m 12,6 km/h (3 Bft) 97,87 %
03.09.2016 09:56 17,4 C 18,9 C 17,8 C 81 % 0 lf 1018,5 hPa 0,0 l/m 0 min 0 min 181 W/m 10,5 km/h (2 Bft) 93,62 %
03.09.2016 09:58 17,4 C 18,9 C 17,8 C 82 % 0 lf 1018,5 hPa 0,0 l/m 0 min 0 min 162 W/m 6,3 km/h (2 Bft) 97,87 %
03.09.2016 10:00 17,4 C 19,4 C 17,8 C 82 % 0 lf 1018,4 hPa 0,0 l/m 0 min 0 min 150 W/m 12,6 km/h (3 Bft) 95,74 %
03.09.2016 10:02 17,4 C 18,9 C 17,8 C 82 % 0 lf 1018,4 hPa 0,0 l/m 0 min 0 min 149 W/m 10,5 km/h (2 Bft) 95,65 %
03.09.2016 10:04 17,5 C 18,3 C 17,8 C 82 % 0 lf 1018,4 hPa 0,0 l/m 0 min 0 min 154 W/m 10,5 km/h (2 Bft) 95,74 %
03.09.2016 10:06 17,5 C 18,3 C 17,2 C 82 % 0 lf 1018,4 hPa 0,0 l/m 0 min 0 min 156 W/m 20,9 km/h (4 Bft) 91,49 %
03.09.2016 10:08 17,5 C 18,3 C 17,2 C 82 % 0 lf 1018,5 hPa 0,0 l/m 0 min 0 min 163 W/m 14,6 km/h (3 Bft) 95,74 %
03.09.2016 10:10 17,5 C 18,3 C 17,2 C 82 % 0 lf 1018,5 hPa 0,0 l/m 0 min 0 min 167 W/m 14,6 km/h (3 Bft) 93,62 %
03.09.2016 10:12 17,5 C 18,3 C 17,2 C 82 % 0 lf 1018,5 hPa 0,0 l/m 0 min 0 min 169 W/m 10,5 km/h (2 Bft) 93,62 %
03.09.2016 10:14 17,5 C 18,3 C 17,8 C 83 % 0 lf 1018,4 hPa 0,0 l/m 0 min 0 min 174 W/m 14,6 km/h (3 Bft) 95,74 %
03.09.2016 10:16 17,5 C 18,9 C 17,8 C 83 % 0 lf 1018,4 hPa 0,0 l/m 0 min 0 min 170 W/m 8,4 km/h (2 Bft) 95,74 %
03.09.2016 10:18 17,5 C 18,9 C 17,8 C 83 % 0 lf 1018,4 hPa 0,0 l/m 0 min 0 min 162 W/m 8,4 km/h (2 Bft) 95,74 %
03.09.2016 10:20 17,5 C 18,9 C 17,8 C 83 % 0 lf 1018,5 hPa 0,0 l/m 0 min 0 min 161 W/m 12,6 km/h (3 Bft) 95,74 %
03.09.2016 10:22 17,5 C 18,9 C 17,8 C 83 % 0 lf 1018,5 hPa 0,0 l/m 0 min 0 min 170 W/m 12,6 km/h (3 Bft) 93,62 %
03.09.2016 10:24 17,6 C 18,9 C 17,8 C 83 % 0 lf 1018,5 hPa 0,0 l/m 0 min 0 min 181 W/m 12,6 km/h (3 Bft) 95,65 %
03.09.2016 10:26 17,6 C 18,9 C 18,3 C 83 % 0 lf 1018,5 hPa 0,0 l/m 0 min 0 min 186 W/m 10,5 km/h (2 Bft) 91,49 %
03.09.2016 10:28 17,6 C 18,9 C 18,3 C 84 % 0 lf 1018,5 hPa 0,0 l/m 0 min 0 min 201 W/m 10,5 km/h (2 Bft) 95,74 %
03.09.2016 10:30 17,6 C 18,9 C 18,3 C 83 % 0 lf 1018,5 hPa 0,0 l/m 0 min 0 min 219 W/m 12,6 km/h (3 Bft) 95,74 %
03.09.2016 10:32 17,6 C 19,4 C 18,3 C 84 % 0 lf 1018,4 hPa 0,0 l/m 0 min 0 min 218 W/m 12,6 km/h (3 Bft) 95,83 %
03.09.2016 10:34 17,6 C 19,4 C 18,9 C 84 % 0 lf 1018,4 hPa 0,0 l/m 0 min 0 min 213 W/m 12,6 km/h (3 Bft) 91,49 %
03.09.2016 10:36 17,7 C 19,4 C 18,9 C 84 % 0 lf 1018,4 hPa 0,0 l/m 0 min 0 min 243 W/m 10,5 km/h (2 Bft) 97,30 %
03.09.2016 10:38 17,7 C 20,6 C 18,9 C 84 % 0 lf 1018,4 hPa 0,0 l/m 2 min 0 min 284 W/m 12,6 km/h (3 Bft) 97,83 %
03.09.2016 10:40 17,8 C 22,2 C 20,6 C 84 % 0 lf 1018,4 hPa 0,0 l/m 2 min 0 min 306 W/m 10,5 km/h (2 Bft) 97,87 %
03.09.2016 10:42 17,9 C 25,0 C 22,2 C 84 % 0 lf 1018,4 hPa 0,0 l/m 2 min 0 min 514 W/m 12,6 km/h (3 Bft) 95,74 %
03.09.2016 10:44 18,0 C 26,7 C 22,8 C 84 % 0 lf 1018,4 hPa 0,0 l/m 2 min 0 min 575 W/m 12,6 km/h (3 Bft) 97,87 %
03.09.2016 10:46 18,1 C 25,6 C 22,8 C 84 % 0 lf 1018,4 hPa 0,0 l/m 2 min 0 min 571 W/m 12,6 km/h (3 Bft) 97,87 %
03.09.2016 10:48 18,2 C 26,1 C 22,8 C 84 % 0 lf 1018,4 hPa 0,0 l/m 2 min 0 min 546 W/m 10,5 km/h (2 Bft) 95,74 %
03.09.2016 10:50 18,3 C 27,8 C 22,8 C 84 % 0 lf 1018,4 hPa 0,0 l/m 2 min 0 min 552 W/m 10,5 km/h (2 Bft) 95,65 %
03.09.2016 10:52 18,4 C 27,8 C 22,2 C 84 % 0 lf 1018,4 hPa 0,0 l/m 2 min 0 min 526 W/m 12,6 km/h (3 Bft) 97,87 %
03.09.2016 10:54 18,6 C 28,3 C 21,7 C 84 % 0 lf 1018,3 hPa 0,0 l/m 2 min 0 min 507 W/m 12,6 km/h (3 Bft) 97,87 %
03.09.2016 10:56 18,7 C 27,2 C 21,7 C 84 % 0 lf 1018,4 hPa 0,0 l/m 2 min 0 min 526 W/m 8,4 km/h (2 Bft) 91,49 %
03.09.2016 10:58 18,8 C 28,3 C 21,7 C 83 % 0 lf 1018,4 hPa 0,0 l/m 2 min 0 min 572 W/m 12,6 km/h (3 Bft) 97,87 %
03.09.2016 11:00 18,9 C 27,8 C 21,7 C 83 % 0 lf 1018,4 hPa 0,0 l/m 2 min 0 min 576 W/m 12,6 km/h (3 Bft) 97,87 %
03.09.2016 11:02 19,1 C 27,8 C 22,8 C 83 % 0 lf 1018,4 hPa 0,0 l/m 2 min 0 min 606 W/m 10,5 km/h (2 Bft) 97,87 %
03.09.2016 11:04 19,2 C 27,8 C 24,4 C 82 % 0 lf 1018,4 hPa 0,0 l/m 2 min 0 min 614 W/m 14,6 km/h (3 Bft) 95,65 %
03.09.2016 11:06 19,4 C 28,3 C 25,0 C 82 % 0 lf 1018,4 hPa 0,0 l/m 2 min 0 min 647 W/m 12,6 km/h (3 Bft) 97,87 %
03.09.2016 11:08 19,5 C 28,9 C 25,6 C 82 % 0 lf 1018,4 hPa 0,0 l/m 2 min 0 min 613 W/m 12,6 km/h (3 Bft) 100,00 %
03.09.2016 11:10 19,7 C 30,6 C 25,6 C 82 % 0 lf 1018,4 hPa 0,0 l/m 2 min 0 min 731 W/m 8,4 km/h (2 Bft) 97,87 %
03.09.2016 11:12 19,8 C 27,2 C 25,0 C 81 % 0 lf 1018,4 hPa 0,0 l/m 2 min 0 min 662 W/m 16,7 km/h (3 Bft) 100,00 %
03.09.2016 11:14 19,9 C 26,1 C 23,9 C 81 % 0 lf 1018,4 hPa 0,0 l/m 2 min 0 min 310 W/m 14,6 km/h (3 Bft) 97,83 %
03.09.2016 11:16 20,1 C 27,2 C 23,9 C 81 % 0 lf 1018,4 hPa 0,0 l/m 2 min 0 min 328 W/m 14,6 km/h (3 Bft) 97,87 %
03.09.2016 11:18 20,1 C 27,8 C 25,6 C 80 % 0 lf 1018,4 hPa 0,0 l/m 2 min 0 min 437 W/m 16,7 km/h (3 Bft) 100,00 %
03.09.2016 11:20 20,3 C 30,0 C 26,1 C 80 % 0 lf 1018,4 hPa 0,0 l/m 2 min 0 min 771 W/m 10,5 km/h (2 Bft) 97,87 %
03.09.2016 11:22 20,3 C 29,4 C 25,6 C 80 % 0 lf 1018,4 hPa 0,0 l/m 2 min 0 min 749 W/m 16,7 km/h (3 Bft) 97,87 %
03.09.2016 11:24 20,4 C 29,4 C 25,0 C 80 % 0 lf 1018,3 hPa 0,0 l/m 2 min 0 min 749 W/m 10,5 km/h (2 Bft) 100,00 %
03.09.2016 11:26 20,6 C 28,9 C 24,4 C 79 % 0 lf 1018,4 hPa 0,0 l/m 2 min 0 min 749 W/m 12,6 km/h (3 Bft) 97,83 %
03.09.2016 11:28 20,6 C 28,3 C 23,9 C 78 % 0 lf 1018,4 hPa 0,0 l/m 2 min 0 min 308 W/m 16,7 km/h (3 Bft) 100,00 %
03.09.2016 11:30 20,7 C 28,3 C 24,4 C 78 % 0 lf 1018,3 hPa 0,0 l/m 2 min 0 min 506 W/m 14,6 km/h (3 Bft) 97,87 %
03.09.2016 11:32 20,7 C 30,0 C 25,6 C 79 % 0 lf 1018,3 hPa 0,0 l/m 2 min 0 min 652 W/m 16,7 km/h (3 Bft) 91,49 %
03.09.2016 11:34 20,8 C 28,9 C 24,4 C 78 % 0 lf 1018,3 hPa 0,0 l/m 2 min 0 min 617 W/m 12,6 km/h (3 Bft) 95,74 %
03.09.2016 11:36 20,8 C 27,8 C 23,3 C 78 % 0 lf 1018,3 hPa 0,0 l/m 0 min 0 min 212 W/m 12,6 km/h (3 Bft) 93,62 %
03.09.2016 11:38 20,8 C 27,8 C 23,9 C 77 % 0 lf 1018,3 hPa 0,0 l/m 0 min 0 min 220 W/m 12,6 km/h (3 Bft) 95,65 %
03.09.2016 11:40 20,9 C 30,0 C 25,6 C 78 % 0 lf 1018,2 hPa 0,0 l/m 2 min 0 min 805 W/m 12,6 km/h (3 Bft) 97,87 %
03.09.2016 11:42 20,9 C 28,9 C 24,4 C 77 % 0 lf 1018,2 hPa 0,0 l/m 2 min 0 min 833 W/m 14,6 km/h (3 Bft) 97,87 %
03.09.2016 11:44 20,9 C 27,2 C 23,3 C 77 % 0 lf 1018,3 hPa 0,0 l/m 2 min 0 min 634 W/m 12,6 km/h (3 Bft) 95,74 %
03.09.2016 11:46 21,0 C 27,8 C 23,3 C 76 % 0 lf 1018,3 hPa 0,0 l/m 0 min 0 min 301 W/m 10,5 km/h (2 Bft) 97,87 %
03.09.2016 11:48 21,0 C 29,4 C 25,6 C 77 % 0 lf 1018,3 hPa 0,0 l/m 2 min 0 min 646 W/m 12,6 km/h (3 Bft) 97,87 %
03.09.2016 11:50 21,1 C 28,3 C 26,1 C 77 % 0 lf 1018,3 hPa 0,0 l/m 2 min 0 min 809 W/m 16,7 km/h (3 Bft) 97,83 %
03.09.2016 11:52 21,2 C 30,6 C 26,7 C 78 % 0 lf 1018,2 hPa 0,0 l/m 2 min 0 min 750 W/m 12,6 km/h (3 Bft) 93,62 %
03.09.2016 11:54 21,3 C 30,6 C 26,7 C 77 % 0 lf 1018,3 hPa 0,0 l/m 2 min 0 min 726 W/m 12,6 km/h (3 Bft) 91,49 %
03.09.2016 11:56 21,3 C 30,6 C 27,2 C 77 % 0 lf 1018,2 hPa 0,0 l/m 2 min 0 min 646 W/m 12,6 km/h (3 Bft) 97,87 %
03.09.2016 11:58 21,4 C 29,4 C 26,1 C 77 % 0 lf 1018,2 hPa 0,0 l/m 2 min 0 min 400 W/m 20,9 km/h (4 Bft) 93,62 %
03.09.2016 12:00 21,5 C 27,2 C 25,0 C 76 % 0 lf 1018,2 hPa 0,0 l/m 0 min 0 min 307 W/m 10,5 km/h (2 Bft) 97,87 %
03.09.2016 12:02 21,6 C 27,2 C 24,4 C 75 % 0 lf 1018,1 hPa 0,0 l/m 0 min 0 min 309 W/m 10,5 km/h (2 Bft) 95,65 %
03.09.2016 12:04 21,6 C 30,0 C 25,6 C 75 % 0 lf 1018,0 hPa 0,0 l/m 2 min 0 min 349 W/m 10,5 km/h (2 Bft) 93,62 %
03.09.2016 12:06 21,7 C 31,7 C 27,2 C 76 % 0 lf 1017,9 hPa 0,0 l/m 2 min 0 min 397 W/m 10,5 km/h (2 Bft) 95,74 %
03.09.2016 12:08 21,8 C 30,6 C 27,8 C 76 % 0 lf 1017,8 hPa 0,0 l/m 2 min 0 min 616 W/m 14,6 km/h (3 Bft) 93,62 %
03.09.2016 12:10 21,8 C 28,9 C 25,6 C 75 % 0 lf 1017,8 hPa 0,0 l/m 2 min 0 min 432 W/m 14,6 km/h (3 Bft) 95,74 %
03.09.2016 12:12 21,8 C 28,9 C 25,0 C 75 % 0 lf 1017,8 hPa 0,0 l/m 0 min 0 min 287 W/m 12,6 km/h (3 Bft) 95,74 %
03.09.2016 12:14 21,9 C 27,2 C 25,0 C 75 % 0 lf 1017,8 hPa 0,0 l/m 2 min 0 min 359 W/m 8,4 km/h (2 Bft) 97,83 %
03.09.2016 12:16 21,9 C 28,9 C 25,0 C 74 % 0 lf 1017,8 hPa 0,0 l/m 2 min 0 min 517 W/m 6,3 km/h (2 Bft) 97,87 %
03.09.2016 12:18 22,0 C 30,0 C 26,7 C 74 % 0 lf 1017,8 hPa 0,0 l/m 2 min 0 min 898 W/m 4,2 km/h (1 Bft) 95,74 %
03.09.2016 12:20 22,0 C 30,0 C 27,2 C 74 % 0 lf 1017,8 hPa 0,0 l/m 2 min 0 min 897 W/m 10,5 km/h (2 Bft) 95,74 %
03.09.2016 12:22 22,2 C 31,1 C 27,8 C 75 % 0 lf 1017,8 hPa 0,0 l/m 2 min 0 min 815 W/m 12,6 km/h (3 Bft) 93,62 %
03.09.2016 12:24 22,3 C 31,1 C 27,8 C 74 % 0 lf 1017,7 hPa 0,0 l/m 2 min 0 min 758 W/m 12,6 km/h (3 Bft) 97,83 %
03.09.2016 12:26 22,4 C 32,2 C 28,3 C 74 % 0 lf 1017,7 hPa 0,0 l/m 2 min 0 min 792 W/m 8,4 km/h (2 Bft) 97,87 %
03.09.2016 12:28 22,4 C 32,8 C 27,8 C 73 % 0 lf 1017,6 hPa 0,0 l/m 2 min 0 min 881 W/m 6,3 km/h (2 Bft) 97,87 %
03.09.2016 12:30 22,6 C 29,4 C 25,6 C 73 % 0 lf 1017,6 hPa 0,0 l/m 2 min 0 min 900 W/m 16,7 km/h (3 Bft) 93,62 %
03.09.2016 12:32 22,5 C 27,2 C 25,0 C 73 % 0 lf 1017,5 hPa 0,0 l/m 0 min 0 min 314 W/m 12,6 km/h (3 Bft) 98,11 %
03.09.2016 12:34 22,6 C 29,4 C 25,6 C 73 % 0 lf 1017,5 hPa 0,0 l/m 0 min 0 min 269 W/m 14,6 km/h (3 Bft) 95,74 %
03.09.2016 12:36 22,6 C 28,3 C 25,6 C 73 % 0 lf 1017,4 hPa 0,0 l/m 2 min 0 min 345 W/m 10,5 km/h (2 Bft) 97,96 %
03.09.2016 12:38 22,6 C 27,8 C 24,4 C 73 % 0 lf 1017,4 hPa 0,0 l/m 2 min 0 min 483 W/m 12,6 km/h (3 Bft) 95,74 %
03.09.2016 12:40 22,6 C 26,1 C 23,9 C 72 % 0 lf 1017,5 hPa 0,0 l/m 2 min 0 min 352 W/m 10,5 km/h (2 Bft) 91,49 %
03.09.2016 12:42 22,6 C 26,1 C 23,3 C 72 % 0 lf 1017,3 hPa 0,0 l/m 0 min 0 min 280 W/m 8,4 km/h (2 Bft) 95,74 %
03.09.2016 12:44 22,6 C 26,1 C 23,3 C 72 % 0 lf 1017,3 hPa 0,0 l/m 2 min 0 min 436 W/m 6,3 km/h (2 Bft) 95,74 %
03.09.2016 12:46 22,6 C 28,3 C 23,9 C 72 % 0 lf 1017,2 hPa 0,0 l/m 2 min 0 min 450 W/m 12,6 km/h (3 Bft) 91,30 %
03.09.2016 12:48 22,6 C 30,6 C 24,4 C 73 % 0 lf 1017,2 hPa 0,0 l/m 2 min 0 min 596 W/m 14,6 km/h (3 Bft) 93,62 %
03.09.2016 12:50 22,7 C 31,1 C 25,0 C 74 % 0 lf 1017,1 hPa 0,0 l/m 2 min 0 min 878 W/m 16,7 km/h (3 Bft) 95,74 %
03.09.2016 12:52 22,7 C 32,8 C 25,0 C 74 % 0 lf 1017,2 hPa 0,0 l/m 2 min 0 min 912 W/m 20,9 km/h (4 Bft) 95,74 %
03.09.2016 12:54 22,8 C 32,8 C 25,0 C 73 % 0 lf 1017,2 hPa 0,0 l/m 2 min 0 min 863 W/m 16,7 km/h (3 Bft) 95,74 %
03.09.2016 12:56 22,9 C 31,7 C 25,6 C 73 % 0 lf 1017,1 hPa 0,0 l/m 2 min 0 min 890 W/m 18,8 km/h (3 Bft) 97,87 %
03.09.2016 12:58 23,0 C 30,0 C 25,6 C 73 % 0 lf 1017,1 hPa 0,0 l/m 2 min 0 min 918 W/m 8,4 km/h (2 Bft) 97,83 %
03.09.2016 13:00 23,1 C 28,3 C 25,0 C 72 % 0 lf 1017,1 hPa 0,0 l/m 2 min 0 min 446 W/m 10,5 km/h (2 Bft) 97,87 %
03.09.2016 13:02 23,1 C 28,3 C 24,4 C 72 % 0 lf 1017,1 hPa 0,0 l/m 0 min 0 min 317 W/m 6,3 km/h (2 Bft) 97,87 %
03.09.2016 13:04 23,1 C 26,7 C 23,9 C 72 % 0 lf 1017,1 hPa 0,0 l/m 0 min 0 min 294 W/m 12,6 km/h (3 Bft) 97,87 %
03.09.2016 13:06 23,1 C 26,1 C 23,3 C 72 % 0 lf 1017,1 hPa 0,0 l/m 0 min 0 min 329 W/m 12,6 km/h (3 Bft) 97,87 %
03.09.2016 13:08 23,1 C 26,7 C 23,3 C 72 % 0 lf 1017,1 hPa 0,0 l/m 0 min 0 min 347 W/m 12,6 km/h (3 Bft) 97,87 %
03.09.2016 13:10 23,0 C 27,2 C 23,9 C 72 % 0 lf 1017,1 hPa 0,0 l/m 2 min 0 min 445 W/m 16,7 km/h (3 Bft) 97,83 %
03.09.2016 13:12 23,1 C 28,3 C 23,9 C 72 % 0 lf 1017,1 hPa 0,0 l/m 2 min 0 min 488 W/m 10,5 km/h (2 Bft) 95,74 %
03.09.2016 13:14 23,1 C 28,3 C 23,9 C 72 % 0 lf 1017,1 hPa 0,0 l/m 2 min 0 min 486 W/m 12,6 km/h (3 Bft) 95,74 %
03.09.2016 13:16 23,1 C 28,3 C 24,4 C 73 % 0 lf 1017,2 hPa 0,0 l/m 2 min 0 min 429 W/m 14,6 km/h (3 Bft) 95,74 %
03.09.2016 13:18 23,1 C 28,9 C 25,0 C 73 % 0 lf 1017,1 hPa 0,0 l/m 2 min 0 min 517 W/m 10,5 km/h (2 Bft) 97,87 %
03.09.2016 13:20 23,2 C 29,4 C 25,6 C 72 % 0 lf 1017,1 hPa 0,0 l/m 2 min 0 min 610 W/m 14,6 km/h (3 Bft) 95,65 %
03.09.2016 13:22 23,3 C 30,6 C 25,6 C 73 % 0 lf 1017,2 hPa 0,0 l/m 2 min 0 min 754 W/m 16,7 km/h (3 Bft) 93,62 %
03.09.2016 13:24 23,3 C 30,0 C 26,1 C 72 % 0 lf 1017,1 hPa 0,0 l/m 2 min 0 min 754 W/m 10,5 km/h (2 Bft) 95,74 %
03.09.2016 13:26 23,4 C 28,9 C 25,6 C 72 % 0 lf 1017,1 hPa 0,0 l/m 2 min 0 min 558 W/m 12,6 km/h (3 Bft) 91,49 %
03.09.2016 13:28 23,4 C 27,2 C 25,0 C 71 % 0 lf 1017,1 hPa 0,0 l/m 2 min 0 min 354 W/m 10,5 km/h (2 Bft) 95,74 %
03.09.2016 13:30 23,4 C 26,7 C 25,0 C 71 % 0 lf 1017,1 hPa 0,0 l/m 0 min 0 min 333 W/m 8,4 km/h (2 Bft) 95,74 %
03.09.2016 13:32 23,4 C 27,2 C 24,4 C 72 % 0 lf 1017,1 hPa 0,0 l/m 2 min 0 min 357 W/m 10,5 km/h (2 Bft) 89,58 %
03.09.2016 13:34 23,5 C 29,4 C 25,0 C 72 % 0 lf 1017,1 hPa 0,0 l/m 2 min 0 min 462 W/m 10,5 km/h (2 Bft) 97,83 %
03.09.2016 13:36 23,5 C 28,9 C 24,4 C 71 % 0 lf 1017,0 hPa 0,0 l/m 2 min 0 min 529 W/m 10,5 km/h (2 Bft) 97,87 %
03.09.2016 13:38 23,5 C 28,9 C 23,9 C 72 % 0 lf 1017,1 hPa 0,0 l/m 0 min 0 min 282 W/m 10,5 km/h (2 Bft) 100,00 %
03.09.2016 13:40 23,5 C 27,2 C 23,9 C 71 % 0 lf 1017,0 hPa 0,0 l/m 0 min 0 min 302 W/m 10,5 km/h (2 Bft) 94,29 %
03.09.2016 13:42 23,5 C 27,2 C 23,9 C 71 % 0 lf 1017,0 hPa 0,0 l/m 0 min 0 min 298 W/m 10,5 km/h (2 Bft) 96,49 %
03.09.2016 13:44 23,4 C 27,2 C 23,9 C 71 % 0 lf 1016,9 hPa 0,0 l/m 0 min 0 min 321 W/m 10,5 km/h (2 Bft) 97,83 %
03.09.2016 13:46 23,4 C 27,8 C 23,9 C 71 % 0 lf 1017,0 hPa 0,0 l/m 2 min 0 min 391 W/m 4,2 km/h (1 Bft) 95,74 %
03.09.2016 13:48 23,4 C 30,0 C 24,4 C 71 % 0 lf 1017,0 hPa 0,0 l/m 2 min 0 min 413 W/m 6,3 km/h (2 Bft) 97,87 %
03.09.2016 13:50 23,4 C 28,9 C 24,4 C 71 % 0 lf 1017,0 hPa 0,0 l/m 2 min 0 min 598 W/m 6,3 km/h (2 Bft) 95,74 %
03.09.2016 13:52 23,5 C 29,4 C 25,0 C 71 % 0 lf 1016,9 hPa 0,0 l/m 2 min 0 min 719 W/m 4,2 km/h (1 Bft) 95,74 %
03.09.2016 13:54 23,5 C 27,8 C 24,4 C 71 % 0 lf 1016,9 hPa 0,0 l/m 2 min 0 min 546 W/m 10,5 km/h (2 Bft) 97,87 %
03.09.2016 13:56 23,5 C 26,7 C 24,4 C 71 % 0 lf 1016,9 hPa 0,0 l/m 2 min 0 min 352 W/m 12,6 km/h (3 Bft) 95,65 %
03.09.2016 13:58 23,5 C 27,8 C 25,0 C 72 % 0 lf 1016,9 hPa 0,0 l/m 2 min 0 min 380 W/m 12,6 km/h (3 Bft) 97,87 %
03.09.2016 14:00 23,6 C 28,9 C 25,0 C 71 % 0 lf 1016,8 hPa 0,0 l/m 2 min 0 min 380 W/m 12,6 km/h (3 Bft) 97,87 %
03.09.2016 14:02 23,6 C 30,6 C 25,6 C 72 % 0 lf 1016,8 hPa 0,0 l/m 2 min 0 min 380 W/m 14,6 km/h (3 Bft) 93,62 %
03.09.2016 14:04 23,7 C 31,7 C 25,6 C 72 % 0 lf 1016,9 hPa 0,0 l/m 2 min 0 min 380 W/m 10,5 km/h (2 Bft) 95,74 %
03.09.2016 14:06 23,8 C 31,7 C 25,6 C 71 % 0 lf 1016,9 hPa 0,0 l/m 2 min 0 min 466 W/m 14,6 km/h (3 Bft) 97,87 %
03.09.2016 14:08 23,9 C 31,7 C 25,6 C 71 % 0 lf 1016,9 hPa 0,0 l/m 2 min 0 min 592 W/m 12,6 km/h (3 Bft) 93,48 %
03.09.2016 14:10 24,0 C 32,2 C 25,6 C 70 % 0 lf 1016,8 hPa 0,0 l/m 2 min 0 min 649 W/m 12,6 km/h (3 Bft) 93,62 %
03.09.2016 14:12 24,1 C 33,3 C 25,6 C 70 % 0 lf 1016,9 hPa 0,0 l/m 2 min 0 min 810 W/m 14,6 km/h (3 Bft) 95,74 %
03.09.2016 14:14 24,2 C 34,4 C 25,6 C 69 % 0 lf 1016,8 hPa 0,0 l/m 2 min 0 min 956 W/m 10,5 km/h (2 Bft) 97,87 %
03.09.2016 14:16 24,3 C 35,0 C 25,0 C 69 % 0 lf 1016,8 hPa 0,0 l/m 2 min 0 min 911 W/m 10,5 km/h (2 Bft) 93,62 %
03.09.2016 14:18 24,4 C 32,2 C 25,0 C 68 % 0 lf 1016,8 hPa 0,0 l/m 2 min 0 min 569 W/m 14,6 km/h (3 Bft) 97,87 %
03.09.2016 14:20 24,4 C 30,0 C 24,4 C 68 % 0 lf 1016,8 hPa 0,0 l/m 0 min 0 min 271 W/m 8,4 km/h (2 Bft) 93,48 %
03.09.2016 14:22 24,4 C 29,4 C 24,4 C 68 % 0 lf 1016,8 hPa 0,0 l/m 0 min 0 min 294 W/m 8,4 km/h (2 Bft) 97,87 %
03.09.2016 14:24 24,3 C 27,8 C 23,9 C 68 % 0 lf 1016,7 hPa 0,0 l/m 0 min 0 min 310 W/m 10,5 km/h (2 Bft) 93,62 %
03.09.2016 14:26 24,3 C 27,2 C 23,9 C 67 % 0 lf 1016,6 hPa 0,0 l/m 0 min 0 min 238 W/m 6,3 km/h (2 Bft) 93,62 %
03.09.2016 14:28 24,2 C 27,2 C 23,3 C 67 % 0 lf 1016,6 hPa 0,0 l/m 0 min 0 min 244 W/m 8,4 km/h (2 Bft) 95,74 %
03.09.2016 14:30 24,2 C 28,3 C 23,9 C 69 % 0 lf 1016,4 hPa 0,0 l/m 0 min 0 min 269 W/m 8,4 km/h (2 Bft) 97,87 %
03.09.2016 14:32 24,2 C 31,7 C 24,4 C 69 % 0 lf 1016,4 hPa 0,0 l/m 2 min 0 min 732 W/m 8,4 km/h (2 Bft) 95,74 %
03.09.2016 14:34 24,2 C 32,8 C 25,6 C 69 % 0 lf 1016,4 hPa 0,0 l/m 2 min 0 min 927 W/m 8,4 km/h (2 Bft) 93,62 %
03.09.2016 14:36 24,2 C 32,2 C 25,0 C 69 % 0 lf 1016,4 hPa 0,0 l/m 2 min 0 min 874 W/m 4,2 km/h (1 Bft) 97,37 %
03.09.2016 14:38 24,3 C 34,4 C 25,6 C 70 % 0 lf 1016,4 hPa 0,0 l/m 2 min 0 min 829 W/m 12,6 km/h (3 Bft) 97,87 %
03.09.2016 14:40 24,4 C 33,3 C 25,6 C 69 % 0 lf 1016,4 hPa 0,0 l/m 2 min 0 min 815 W/m 12,6 km/h (3 Bft) 95,74 %
03.09.2016 14:42 24,5 C 33,3 C 25,0 C 69 % 0 lf 1016,4 hPa 0,0 l/m 2 min 0 min 815 W/m 16,7 km/h (3 Bft) 95,74 %
03.09.2016 14:44 24,6 C 32,2 C 24,4 C 68 % 0 lf 1016,5 hPa 0,0 l/m 2 min 0 min 852 W/m 14,6 km/h (3 Bft) 95,74 %
03.09.2016 14:46 24,6 C 32,8 C 25,0 C 68 % 0 lf 1016,5 hPa 0,0 l/m 2 min 0 min 856 W/m 14,6 km/h (3 Bft) 97,83 %
03.09.2016 14:48 24,7 C 33,9 C 27,2 C 68 % 0 lf 1016,5 hPa 0,0 l/m 2 min 0 min 917 W/m 16,7 km/h (3 Bft) 97,87 %
03.09.2016 14:50 24,7 C 32,2 C 27,8 C 67 % 0 lf 1016,5 hPa 0,0 l/m 2 min 0 min 930 W/m 23,0 km/h (4 Bft) 95,74 %
03.09.2016 14:52 24,7 C 31,1 C 27,8 C 67 % 0 lf 1016,4 hPa 0,0 l/m 2 min 0 min 447 W/m 18,8 km/h (3 Bft) 97,87 %
03.09.2016 14:54 24,8 C 32,2 C 28,9 C 68 % 0 lf 1016,4 hPa 0,0 l/m 2 min 0 min 695 W/m 12,6 km/h (3 Bft) 97,87 %
03.09.2016 14:56 24,8 C 33,9 C 30,6 C 68 % 0 lf 1016,4 hPa 0,0 l/m 2 min 0 min 922 W/m 10,5 km/h (2 Bft) 97,83 %
03.09.2016 14:58 24,9 C 33,3 C 32,2 C 67 % 0 lf 1016,3 hPa 0,0 l/m 2 min 0 min 885 W/m 18,8 km/h (3 Bft) 95,74 %
03.09.2016 15:00 25,0 C 35,0 C 32,8 C 67 % 0 lf 1016,3 hPa 0,0 l/m 2 min 0 min 872 W/m 20,9 km/h (4 Bft) 97,87 %
03.09.2016 15:02 25,1 C 33,3 C 32,2 C 65 % 0 lf 1016,3 hPa 0,0 l/m 2 min 0 min 875 W/m 16,7 km/h (3 Bft) 100,00 %
03.09.2016 15:04 25,1 C 31,7 C 30,6 C 66 % 0 lf 1016,3 hPa 0,0 l/m 2 min 0 min 872 W/m 16,7 km/h (3 Bft) 100,00 %
03.09.2016 15:06 25,1 C 30,6 C 27,8 C 65 % 0 lf 1016,3 hPa 0,0 l/m 0 min 0 min 268 W/m 14,6 km/h (3 Bft) 100,00 %
03.09.2016 15:08 25,1 C 30,0 C 26,7 C 66 % 0 lf 1016,3 hPa 0,0 l/m 0 min 0 min 322 W/m 14,6 km/h (3 Bft) 100,00 %
03.09.2016 15:10 25,0 C 29,4 C 26,1 C 66 % 0 lf 1016,3 hPa 0,0 l/m 2 min 0 min 410 W/m 10,5 km/h (2 Bft) 100,00 %
03.09.2016 15:12 25,0 C 30,6 C 26,1 C 67 % 0 lf 1016,3 hPa 0,0 l/m 0 min 0 min 285 W/m 10,5 km/h (2 Bft) 100,00 %
03.09.2016 15:14 24,9 C 28,9 C 26,1 C 66 % 0 lf 1016,3 hPa 0,0 l/m 0 min 0 min 303 W/m 12,6 km/h (3 Bft) 97,87 %
03.09.2016 15:16 24,9 C 28,3 C 25,6 C 66 % 0 lf 1016,3 hPa 0,0 l/m 0 min 0 min 290 W/m 14,6 km/h (3 Bft) 100,00 %
03.09.2016 15:18 24,9 C 30,6 C 26,1 C 67 % 0 lf 1016,3 hPa 0,0 l/m 0 min 0 min 301 W/m 14,6 km/h (3 Bft) 97,87 %
03.09.2016 15:20 24,8 C 30,0 C 26,1 C 67 % 0 lf 1016,2 hPa 0,0 l/m 0 min 0 min 301 W/m 18,8 km/h (3 Bft) 100,00 %
03.09.2016 15:22 24,8 C 31,1 C 26,1 C 67 % 0 lf 1016,1 hPa 0,0 l/m 2 min 0 min 322 W/m 12,6 km/h (3 Bft) 100,00 %
03.09.2016 15:24 24,9 C 32,8 C 26,1 C 67 % 0 lf 1016,2 hPa 0,0 l/m 2 min 0 min 798 W/m 12,6 km/h (3 Bft) 97,87 %
03.09.2016 15:26 24,9 C 32,2 C 25,6 C 67 % 0 lf 1016,2 hPa 0,0 l/m 2 min 0 min 798 W/m 10,5 km/h (2 Bft) 100,00 %
03.09.2016 15:28 24,9 C 31,1 C 25,6 C 67 % 0 lf 1016,1 hPa 0,0 l/m 2 min 0 min 798 W/m 10,5 km/h (2 Bft) 97,87 %
03.09.2016 15:30 24,9 C 29,4 C 25,6 C 66 % 0 lf 1016,1 hPa 0,0 l/m 2 min 0 min 678 W/m 16,7 km/h (3 Bft) 100,00 %
03.09.2016 15:32 24,9 C 28,3 C 24,4 C 66 % 0 lf 1015,9 hPa 0,0 l/m 0 min 0 min 231 W/m 14,6 km/h (3 Bft) 97,83 %
03.09.2016 15:34 24,8 C 27,8 C 24,4 C 66 % 0 lf 1015,9 hPa 0,0 l/m 0 min 0 min 205 W/m 10,5 km/h (2 Bft) 100,00 %
03.09.2016 15:36 24,8 C 27,8 C 25,0 C 66 % 0 lf 1015,8 hPa 0,0 l/m 2 min 0 min 622 W/m 10,5 km/h (2 Bft) 100,00 %
03.09.2016 15:38 24,7 C 27,8 C 24,4 C 66 % 0 lf 1015,8 hPa 0,0 l/m 2 min 0 min 368 W/m 10,5 km/h (2 Bft) 100,00 %
03.09.2016 15:40 24,7 C 28,3 C 24,4 C 66 % 0 lf 1015,7 hPa 0,0 l/m 0 min 0 min 271 W/m 10,5 km/h (2 Bft) 100,00 %
03.09.2016 15:42 24,7 C 28,9 C 24,4 C 66 % 0 lf 1015,8 hPa 0,0 l/m 0 min 0 min 186 W/m 20,9 km/h (4 Bft) 100,00 %
03.09.2016 15:44 24,6 C 30,0 C 25,0 C 67 % 0 lf 1015,8 hPa 0,0 l/m 0 min 0 min 186 W/m 16,7 km/h (3 Bft) 95,65 %
03.09.2016 15:46 24,6 C 31,1 C 26,1 C 67 % 0 lf 1015,8 hPa 0,0 l/m 2 min 0 min 686 W/m 20,9 km/h (4 Bft) 98,11 %
03.09.2016 15:48 24,7 C 33,3 C 26,1 C 67 % 0 lf 1015,8 hPa 0,0 l/m 2 min 0 min 707 W/m 10,5 km/h (2 Bft) 100,00 %
03.09.2016 15:50 24,7 C 32,8 C 25,6 C 67 % 0 lf 1015,8 hPa 0,0 l/m 2 min 0 min 703 W/m 18,8 km/h (3 Bft) 97,87 %
03.09.2016 15:52 24,8 C 32,8 C 25,6 C 67 % 0 lf 1015,7 hPa 0,0 l/m 2 min 0 min 700 W/m 16,7 km/h (3 Bft) 97,92 %
03.09.2016 15:54 24,8 C 33,3 C 25,6 C 67 % 0 lf 1015,7 hPa 0,0 l/m 2 min 0 min 690 W/m 14,6 km/h (3 Bft) 97,83 %
03.09.2016 15:56 24,9 C 32,2 C 25,0 C 66 % 0 lf 1015,7 hPa 0,0 l/m 2 min 0 min 659 W/m 14,6 km/h (3 Bft) 97,87 %
03.09.2016 15:58 24,9 C 31,1 C 25,0 C 66 % 0 lf 1015,6 hPa 0,0 l/m 2 min 0 min 678 W/m 16,7 km/h (3 Bft) 95,74 %
03.09.2016 16:00 25,1 C 32,8 C 25,0 C 66 % 0 lf 1015,6 hPa 0,0 l/m 2 min 0 min 688 W/m 14,6 km/h (3 Bft) 97,87 %
03.09.2016 16:02 25,1 C 31,1 C 25,0 C 65 % 0 lf 1015,6 hPa 0,0 l/m 2 min 0 min 496 W/m 14,6 km/h (3 Bft) 91,49 %
03.09.2016 16:04 25,1 C 29,4 C 24,4 C 63 % 0 lf 1015,5 hPa 0,0 l/m 0 min 0 min 189 W/m 18,8 km/h (3 Bft) 95,74 %
03.09.2016 16:06 25,0 C 28,3 C 23,9 C 63 % 0 lf 1015,5 hPa 0,0 l/m 0 min 0 min 232 W/m 16,7 km/h (3 Bft) 97,83 %
03.09.2016 16:08 24,9 C 27,2 C 24,4 C 64 % 0 lf 1015,6 hPa 0,0 l/m 0 min 0 min 250 W/m 25,1 km/h (4 Bft) 97,87 %
03.09.2016 16:10 24,9 C 27,2 C 24,4 C 63 % 0 lf 1015,5 hPa 0,0 l/m 0 min 0 min 247 W/m 14,6 km/h (3 Bft) 97,87 %
03.09.2016 16:12 24,8 C 27,8 C 24,4 C 63 % 0 lf 1015,5 hPa 0,0 l/m 0 min 0 min 254 W/m 18,8 km/h (3 Bft) 97,87 %
03.09.2016 16:14 24,8 C 26,7 C 23,9 C 63 % 0 lf 1015,5 hPa 0,0 l/m 0 min 0 min 212 W/m 20,9 km/h (4 Bft) 95,74 %
03.09.2016 16:16 24,7 C 26,1 C 23,3 C 63 % 0 lf 1015,5 hPa 0,0 l/m 0 min 0 min 172 W/m 23,0 km/h (4 Bft) 95,74 %
03.09.2016 16:18 24,6 C 28,9 C 23,9 C 63 % 0 lf 1015,4 hPa 0,0 l/m 2 min 0 min 510 W/m 23,0 km/h (4 Bft) 95,65 %
03.09.2016 16:20 24,6 C 30,6 C 23,9 C 64 % 0 lf 1015,4 hPa 0,0 l/m 2 min 0 min 616 W/m 18,8 km/h (3 Bft) 97,87 %
03.09.2016 16:22 24,7 C 31,7 C 24,4 C 64 % 0 lf 1015,5 hPa 0,0 l/m 2 min 0 min 639 W/m 20,9 km/h (4 Bft) 100,00 %
03.09.2016 16:24 24,7 C 30,0 C 24,4 C 64 % 0 lf 1015,5 hPa 0,0 l/m 2 min 0 min 633 W/m 20,9 km/h (4 Bft) 95,74 %
03.09.2016 16:26 24,8 C 30,6 C 24,4 C 64 % 0 lf 1015,5 hPa 0,0 l/m 2 min 0 min 594 W/m 16,7 km/h (3 Bft) 93,62 %
03.09.2016 16:28 24,8 C 31,7 C 24,4 C 64 % 0 lf 1015,5 hPa 0,0 l/m 2 min 0 min 607 W/m 16,7 km/h (3 Bft) 95,74 %
03.09.2016 16:30 24,9 C 32,8 C 24,4 C 65 % 0 lf 1015,5 hPa 0,0 l/m 2 min 0 min 617 W/m 16,7 km/h (3 Bft) 93,48 %
03.09.2016 16:32 25,0 C 32,8 C 24,4 C 65 % 0 lf 1015,4 hPa 0,0 l/m 2 min 0 min 620 W/m 12,6 km/h (3 Bft) 93,62 %
03.09.2016 16:34 25,1 C 32,2 C 24,4 C 65 % 0 lf 1015,4 hPa 0,0 l/m 2 min 0 min 562 W/m 18,8 km/h (3 Bft) 93,62 %
03.09.2016 16:36 25,1 C 31,7 C 24,4 C 65 % 0 lf 1015,4 hPa 0,0 l/m 2 min 0 min 524 W/m 12,6 km/h (3 Bft) 86,84 %
03.09.2016 16:38 25,1 C 31,1 C 23,9 C 64 % 0 lf 1015,3 hPa 0,0 l/m 2 min 0 min 428 W/m 14,6 km/h (3 Bft) 87,23 %
03.09.2016 16:40 25,1 C 31,7 C 24,4 C 64 % 0 lf 1015,4 hPa 0,0 l/m 2 min 0 min 556 W/m 20,9 km/h (4 Bft) 91,49 %
03.09.2016 16:42 25,2 C 32,2 C 24,4 C 64 % 0 lf 1015,4 hPa 0,0 l/m 2 min 0 min 569 W/m 16,7 km/h (3 Bft) 91,38 %
03.09.2016 16:44 25,1 C 32,2 C 23,9 C 63 % 0 lf 1015,4 hPa 0,0 l/m 2 min 0 min 557 W/m 16,7 km/h (3 Bft) 89,36 %
03.09.2016 16:46 25,1 C 31,7 C 23,9 C 63 % 0 lf 1015,4 hPa 0,0 l/m 2 min 0 min 481 W/m 14,6 km/h (3 Bft) 94,29 %
03.09.2016 16:48 25,1 C 31,1 C 23,9 C 63 % 0 lf 1015,3 hPa 0,0 l/m 2 min 0 min 455 W/m 18,8 km/h (3 Bft) 89,83 %
03.09.2016 16:50 25,1 C 31,7 C 23,9 C 63 % 0 lf 1015,2 hPa 0,0 l/m 2 min 0 min 483 W/m 16,7 km/h (3 Bft) 91,49 %
03.09.2016 16:52 25,1 C 31,7 C 23,3 C 63 % 0 lf 1015,1 hPa 0,0 l/m 2 min 0 min 436 W/m 16,7 km/h (3 Bft) 91,30 %
03.09.2016 16:54 25,1 C 31,7 C 23,9 C 63 % 0 lf 1015,1 hPa 0,0 l/m 2 min 0 min 473 W/m 14,6 km/h (3 Bft) 85,11 %
03.09.2016 16:56 25,1 C 31,1 C 23,3 C 63 % 0 lf 1015,0 hPa 0,0 l/m 2 min 0 min 496 W/m 10,5 km/h (2 Bft) 93,62 %
03.09.2016 16:58 25,1 C 29,4 C 23,9 C 63 % 0 lf 1015,0 hPa 0,0 l/m 2 min 0 min 483 W/m 25,1 km/h (4 Bft) 93,62 %
03.09.2016 17:00 25,1 C 28,9 C 23,3 C 63 % 0 lf 1015,0 hPa 0,0 l/m 2 min 0 min 402 W/m 12,6 km/h (3 Bft) 93,62 %
03.09.2016 17:02 25,1 C 28,3 C 23,3 C 63 % 0 lf 1015,0 hPa 0,0 l/m 2 min 0 min 290 W/m 10,5 km/h (2 Bft) 94,29 %
03.09.2016 17:04 25,1 C 27,8 C 23,3 C 64 % 0 lf 1015,0 hPa 0,0 l/m 0 min 0 min 221 W/m 8,4 km/h (2 Bft) 91,38 %
03.09.2016 17:06 25,0 C 27,8 C 23,3 C 64 % 0 lf 1015,1 hPa 0,0 l/m 2 min 0 min 260 W/m 16,7 km/h (3 Bft) 95,74 %
03.09.2016 17:08 24,9 C 27,8 C 23,3 C 64 % 0 lf 1015,1 hPa 0,0 l/m 2 min 0 min 269 W/m 14,6 km/h (3 Bft) 93,62 %
03.09.2016 17:10 24,9 C 28,3 C 23,3 C 64 % 0 lf 1015,1 hPa 0,0 l/m 2 min 0 min 400 W/m 18,8 km/h (3 Bft) 95,74 %
03.09.2016 17:12 24,9 C 30,0 C 23,9 C 64 % 0 lf 1015,1 hPa 0,0 l/m 2 min 0 min 491 W/m 12,6 km/h (3 Bft) 94,29 %
03.09.2016 17:14 24,8 C 28,9 C 23,9 C 65 % 0 lf 1015,0 hPa 0,0 l/m 2 min 0 min 459 W/m 14,6 km/h (3 Bft) 95,74 %
03.09.2016 17:16 24,8 C 27,8 C 23,3 C 65 % 0 lf 1015,0 hPa 0,0 l/m 0 min 0 min 206 W/m 16,7 km/h (3 Bft) 94,83 %
03.09.2016 17:18 24,8 C 26,7 C 23,3 C 65 % 0 lf 1015,0 hPa 0,0 l/m 0 min 0 min 209 W/m 14,6 km/h (3 Bft) 97,87 %
03.09.2016 17:20 24,7 C 26,1 C 23,3 C 65 % 0 lf 1015,0 hPa 0,0 l/m 0 min 0 min 181 W/m 10,5 km/h (2 Bft) 95,74 %
03.09.2016 17:22 24,7 C 26,1 C 23,3 C 66 % 0 lf 1015,0 hPa 0,0 l/m 0 min 0 min 199 W/m 12,6 km/h (3 Bft) 95,74 %
03.09.2016 17:24 24,7 C 26,1 C 23,3 C 66 % 0 lf 1015,0 hPa 0,0 l/m 2 min 0 min 290 W/m 14,6 km/h (3 Bft) 97,87 %
03.09.2016 17:26 24,6 C 26,7 C 22,8 C 66 % 0 lf 1015,0 hPa 0,0 l/m 2 min 0 min 280 W/m 16,7 km/h (3 Bft) 97,83 %
03.09.2016 17:28 24,5 C 27,2 C 22,8 C 66 % 0 lf 1014,9 hPa 0,0 l/m 2 min 0 min 321 W/m 8,4 km/h (2 Bft) 95,74 %
03.09.2016 17:30 24,5 C 27,2 C 23,3 C 66 % 0 lf 1014,9 hPa 0,0 l/m 2 min 0 min 442 W/m 10,5 km/h (2 Bft) 94,29 %
03.09.2016 17:32 24,5 C 27,2 C 23,3 C 66 % 0 lf 1014,9 hPa 0,0 l/m 2 min 0 min 435 W/m 6,3 km/h (2 Bft) 98,31 %
03.09.2016 17:34 24,5 C 28,3 C 23,3 C 67 % 0 lf 1014,9 hPa 0,0 l/m 2 min 0 min 262 W/m 12,6 km/h (3 Bft) 97,87 %
03.09.2016 17:36 24,5 C 28,9 C 23,3 C 67 % 0 lf 1014,9 hPa 0,0 l/m 2 min 0 min 431 W/m 12,6 km/h (3 Bft) 100,00 %
03.09.2016 17:38 24,5 C 28,3 C 23,3 C 67 % 0 lf 1014,9 hPa 0,0 l/m 2 min 0 min 394 W/m 14,6 km/h (3 Bft) 100,00 %
03.09.2016 17:40 24,4 C 26,7 C 23,3 C 66 % 0 lf 1014,8 hPa 0,0 l/m 2 min 0 min 210 W/m 20,9 km/h (4 Bft) 95,74 %
03.09.2016 17:42 24,4 C 26,1 C 22,8 C 66 % 0 lf 1014,8 hPa 0,0 l/m 0 min 0 min 182 W/m 10,5 km/h (2 Bft) 97,83 %
03.09.2016 17:44 24,4 C 25,6 C 22,8 C 67 % 0 lf 1014,8 hPa 0,0 l/m 0 min 0 min 134 W/m 14,6 km/h (3 Bft) 97,87 %
03.09.2016 17:46 24,3 C 25,0 C 22,2 C 67 % 0 lf 1014,8 hPa 0,0 l/m 0 min 0 min 126 W/m 16,7 km/h (3 Bft) 100,00 %
03.09.2016 17:48 24,3 C 25,0 C 22,2 C 67 % 0 lf 1014,8 hPa 0,0 l/m 0 min 0 min 144 W/m 10,5 km/h (2 Bft) 97,87 %
03.09.2016 17:50 24,3 C 25,0 C 22,2 C 67 % 0 lf 1014,8 hPa 0,0 l/m 2 min 0 min 229 W/m 12,6 km/h (3 Bft) 97,87 %
03.09.2016 17:52 24,2 C 25,0 C 22,2 C 67 % 0 lf 1014,8 hPa 0,0 l/m 2 min 0 min 238 W/m 14,6 km/h (3 Bft) 97,83 %
03.09.2016 17:54 24,2 C 25,0 C 22,8 C 67 % 0 lf 1014,8 hPa 0,0 l/m 2 min 0 min 214 W/m 10,5 km/h (2 Bft) 97,87 %
03.09.2016 17:56 24,1 C 25,0 C 22,8 C 67 % 0 lf 1014,9 hPa 0,0 l/m 2 min 0 min 195 W/m 12,6 km/h (3 Bft) 100,00 %
03.09.2016 17:58 24,1 C 25,0 C 22,8 C 68 % 0 lf 1014,8 hPa 0,0 l/m 2 min 0 min 258 W/m 10,5 km/h (2 Bft) 100,00 %
03.09.2016 18:00 24,1 C 25,0 C 22,8 C 68 % 0 lf 1014,7 hPa 0,0 l/m 2 min 0 min 264 W/m 6,3 km/h (2 Bft) 95,74 %
03.09.2016 18:02 24,1 C 25,0 C 22,8 C 68 % 0 lf 1014,6 hPa 0,0 l/m 2 min 0 min 255 W/m 6,3 km/h (2 Bft) 100,00 %
03.09.2016 18:04 24,1 C 25,6 C 22,8 C 68 % 0 lf 1014,5 hPa 0,0 l/m 2 min 0 min 222 W/m 4,2 km/h (1 Bft) 93,48 %
03.09.2016 18:06 24,1 C 26,1 C 22,8 C 68 % 0 lf 1014,4 hPa 0,0 l/m 2 min 0 min 288 W/m 6,3 km/h (2 Bft) 100,00 %
03.09.2016 18:08 24,0 C 26,1 C 23,3 C 68 % 0 lf 1014,2 hPa 0,0 l/m 2 min 0 min 337 W/m 6,3 km/h (2 Bft) 97,87 %
03.09.2016 18:10 24,0 C 26,1 C 22,8 C 68 % 0 lf 1014,4 hPa 0,0 l/m 2 min 0 min 348 W/m 10,5 km/h (2 Bft) 100,00 %
03.09.2016 18:12 24,1 C 26,7 C 22,8 C 68 % 0 lf 1014,5 hPa 0,0 l/m 2 min 0 min 299 W/m 12,6 km/h (3 Bft) 100,00 %
03.09.2016 18:14 24,1 C 27,2 C 22,8 C 68 % 0 lf 1014,5 hPa 0,0 l/m 2 min 0 min 338 W/m 12,6 km/h (3 Bft) 95,74 %
03.09.2016 18:16 24,1 C 26,7 C 22,8 C 68 % 0 lf 1014,5 hPa 0,0 l/m 2 min 0 min 335 W/m 8,4 km/h (2 Bft) 95,65 %
03.09.2016 18:18 24,1 C 26,1 C 22,8 C 67 % 0 lf 1014,4 hPa 0,0 l/m 2 min 0 min 302 W/m 12,6 km/h (3 Bft) 100,00 %
03.09.2016 18:20 24,1 C 25,6 C 22,8 C 67 % 0 lf 1014,5 hPa 0,0 l/m 2 min 0 min 297 W/m 10,5 km/h (2 Bft) 100,00 %
03.09.2016 18:22 24,1 C 25,6 C 22,8 C 67 % 0 lf 1014,5 hPa 0,0 l/m 2 min 0 min 280 W/m 10,5 km/h (2 Bft) 100,00 %
03.09.2016 18:24 24,1 C 25,6 C 22,8 C 68 % 0 lf 1014,5 hPa 0,0 l/m 2 min 0 min 262 W/m 18,8 km/h (3 Bft) 100,00 %
03.09.2016 18:26 24,1 C 25,6 C 22,8 C 67 % 0 lf 1014,5 hPa 0,0 l/m 2 min 0 min 256 W/m 14,6 km/h (3 Bft) 95,74 %
03.09.2016 18:28 24,1 C 25,6 C 22,2 C 67 % 0 lf 1014,6 hPa 0,0 l/m 2 min 0 min 238 W/m 14,6 km/h (3 Bft) 100,00 %
03.09.2016 18:30 24,1 C 25,0 C 22,2 C 66 % 0 lf 1014,6 hPa 0,0 l/m 2 min 0 min 221 W/m 12,6 km/h (3 Bft) 100,00 %
03.09.2016 18:32 24,1 C 25,0 C 22,2 C 66 % 0 lf 1014,6 hPa 0,0 l/m 2 min 0 min 181 W/m 12,6 km/h (3 Bft) 100,00 %
03.09.2016 18:34 24,0 C 24,4 C 21,7 C 67 % 0 lf 1014,6 hPa 0,0 l/m 2 min 0 min 162 W/m 10,5 km/h (2 Bft) 97,87 %
03.09.2016 18:36 24,0 C 24,4 C 21,7 C 67 % 0 lf 1014,6 hPa 0,0 l/m 0 min 0 min 121 W/m 8,4 km/h (2 Bft) 95,74 %
03.09.2016 18:38 23,9 C 23,9 C 21,7 C 67 % 0 lf 1014,6 hPa 0,0 l/m 0 min 0 min 101 W/m 10,5 km/h (2 Bft) 95,74 %
03.09.2016 18:40 23,9 C 23,9 C 21,1 C 67 % 0 lf 1014,6 hPa 0,0 l/m 0 min 0 min 90 W/m 8,4 km/h (2 Bft) 97,83 %
03.09.2016 18:42 23,9 C 23,9 C 21,1 C 67 % 0 lf 1014,6 hPa 0,0 l/m 2 min 0 min 143 W/m 10,5 km/h (2 Bft) 97,87 %
03.09.2016 18:44 23,8 C 23,9 C 21,1 C 67 % 0 lf 1014,6 hPa 0,0 l/m 2 min 0 min 176 W/m 10,5 km/h (2 Bft) 91,49 %
03.09.2016 18:46 23,8 C 23,9 C 21,1 C 68 % 0 lf 1014,6 hPa 0,0 l/m 2 min 0 min 175 W/m 10,5 km/h (2 Bft) 95,74 %
03.09.2016 18:48 23,8 C 23,9 C 21,1 C 68 % 0 lf 1014,5 hPa 0,0 l/m 2 min 0 min 169 W/m 10,5 km/h (2 Bft) 95,74 %
03.09.2016 18:50 23,8 C 23,9 C 21,1 C 68 % 0 lf 1014,5 hPa 0,0 l/m 2 min 0 min 159 W/m 14,6 km/h (3 Bft) 98,04 %
03.09.2016 18:52 23,7 C 23,9 C 21,1 C 68 % 0 lf 1014,5 hPa 0,0 l/m 2 min 0 min 161 W/m 16,7 km/h (3 Bft) 93,33 %
03.09.2016 18:54 23,7 C 23,9 C 21,1 C 67 % 0 lf 1014,5 hPa 0,0 l/m 2 min 0 min 154 W/m 10,5 km/h (2 Bft) 93,62 %
03.09.2016 18:56 23,7 C 23,9 C 21,1 C 68 % 0 lf 1014,4 hPa 0,0 l/m 2 min 0 min 141 W/m 12,6 km/h (3 Bft) 97,87 %
03.09.2016 18:58 23,6 C 23,9 C 21,1 C 68 % 0 lf 1014,4 hPa 0,0 l/m 2 min 0 min 130 W/m 16,7 km/h (3 Bft) 93,62 %
03.09.2016 19:00 23,6 C 23,3 C 21,1 C 68 % 0 lf 1014,4 hPa 0,0 l/m 2 min 0 min 109 W/m 14,6 km/h (3 Bft) 95,74 %
03.09.2016 19:02 23,6 C 23,3 C 21,1 C 68 % 0 lf 1014,4 hPa 0,0 l/m 2 min 0 min 103 W/m 10,5 km/h (2 Bft) 97,83 %
03.09.2016 19:04 23,6 C 23,3 C 21,1 C 68 % 0 lf 1014,4 hPa 0,0 l/m 2 min 0 min 89 W/m 4,2 km/h (1 Bft) 97,87 %
03.09.2016 19:06 23,6 C 23,3 C 21,1 C 68 % 0 lf 1014,3 hPa 0,0 l/m 0 min 0 min 74 W/m 6,3 km/h (2 Bft) 95,74 %
03.09.2016 19:08 23,5 C 23,3 C 21,1 C 68 % 0 lf 1014,3 hPa 0,0 l/m 0 min 0 min 70 W/m 6,3 km/h (2 Bft) 95,74 %
03.09.2016 19:10 23,5 C 23,3 C 21,1 C 68 % 0 lf 1014,2 hPa 0,0 l/m 0 min 0 min 66 W/m 6,3 km/h (2 Bft) 100,00 %
03.09.2016 19:12 23,5 C 22,8 C 21,1 C 68 % 0 lf 1014,2 hPa 0,0 l/m 0 min 0 min 62 W/m 4,2 km/h (1 Bft) 91,49 %
03.09.2016 19:14 23,4 C 22,8 C 20,6 C 68 % 0 lf 1014,1 hPa 0,0 l/m 0 min 0 min 58 W/m 6,3 km/h (2 Bft) 97,83 %
03.09.2016 19:16 23,4 C 22,8 C 20,6 C 68 % 0 lf 1014,1 hPa 0,0 l/m 0 min 0 min 56 W/m 6,3 km/h (2 Bft) 95,74 %
03.09.2016 19:18 23,4 C 22,8 C 20,6 C 69 % 0 lf 1014,1 hPa 0,0 l/m 0 min 0 min 55 W/m 4,2 km/h (1 Bft) 95,74 %
03.09.2016 19:20 23,4 C 22,8 C 20,6 C 69 % 0 lf 1014,0 hPa 0,0 l/m 0 min 0 min 51 W/m 12,6 km/h (3 Bft) 95,74 %
03.09.2016 19:22 23,3 C 22,8 C 20,0 C 69 % 0 lf 1014,0 hPa 0,0 l/m 0 min 0 min 47 W/m 10,5 km/h (2 Bft) 95,74 %
03.09.2016 19:24 23,3 C 22,8 C 20,0 C 69 % 0 lf 1014,1 hPa 0,0 l/m 0 min 0 min 46 W/m 4,2 km/h (1 Bft) 91,49 %
03.09.2016 19:26 23,3 C 22,8 C 20,0 C 69 % 0 lf 1014,1 hPa 0,0 l/m 0 min 0 min 46 W/m 6,3 km/h (2 Bft) 93,48 %
03.09.2016 19:28 23,2 C 22,2 C 20,0 C 69 % 0 lf 1014,1 hPa 0,0 l/m 0 min 0 min 46 W/m 6,3 km/h (2 Bft) 95,74 %
03.09.2016 19:30 23,2 C 22,2 C 19,4 C 69 % 0 lf 1014,1 hPa 0,0 l/m 0 min 0 min 44 W/m 2,1 km/h (1 Bft) 95,74 %
03.09.2016 19:32 23,2 C 22,2 C 19,4 C 70 % 0 lf 1014,1 hPa 0,0 l/m 0 min 0 min 42 W/m 2,1 km/h (1 Bft) 92,45 %
03.09.2016 19:34 23,1 C 22,2 C 19,4 C 70 % 0 lf 1014,1 hPa 0,0 l/m 0 min 0 min 42 W/m 2,1 km/h (1 Bft) 91,49 %
03.09.2016 19:36 23,1 C 22,2 C 18,9 C 70 % 0 lf 1014,2 hPa 0,0 l/m 0 min 0 min 42 W/m 4,2 km/h (1 Bft) 92,11 %
03.09.2016 19:38 23,1 C 22,2 C 18,9 C 70 % 0 lf 1014,2 hPa 0,0 l/m 0 min 0 min 41 W/m 2,1 km/h (1 Bft) 95,65 %
03.09.2016 19:40 23,1 C 21,7 C 18,9 C 70 % 0 lf 1014,1 hPa 0,0 l/m 2 min 0 min 40 W/m 0,0 km/h (0 Bft) 95,74 %
03.09.2016 19:42 23,0 C 21,7 C 18,9 C 70 % 0 lf 1014,1 hPa 0,0 l/m 2 min 0 min 39 W/m 0,0 km/h (0 Bft) 95,74 %
03.09.2016 19:44 23,0 C 21,7 C 18,9 C 70 % 0 lf 1014,1 hPa 0,0 l/m 2 min 0 min 39 W/m 2,1 km/h (1 Bft) 95,74 %
03.09.2016 19:46 22,9 C 21,7 C 18,9 C 71 % 0 lf 1014,1 hPa 0,0 l/m 2 min 0 min 37 W/m 2,1 km/h (1 Bft) 95,74 %
03.09.2016 19:48 22,9 C 21,1 C 18,9 C 71 % 0 lf 1014,2 hPa 0,0 l/m 2 min 0 min 34 W/m 2,1 km/h (1 Bft) 95,74 %
03.09.2016 19:50 22,9 C 21,1 C 18,3 C 71 % 0 lf 1014,1 hPa 0,0 l/m 2 min 0 min 31 W/m 2,1 km/h (1 Bft) 93,48 %
03.09.2016 19:52 22,8 C 21,1 C 18,3 C 71 % 0 lf 1014,1 hPa 0,0 l/m 2 min 0 min 29 W/m 4,2 km/h (1 Bft) 93,62 %
03.09.2016 19:54 22,8 C 21,1 C 18,3 C 71 % 0 lf 1014,0 hPa 0,0 l/m 2 min 0 min 25 W/m 2,1 km/h (1 Bft) 93,62 %
03.09.2016 19:56 22,7 C 21,1 C 18,3 C 71 % 0 lf 1013,9 hPa 0,0 l/m 2 min 0 min 23 W/m 0,0 km/h (0 Bft) 95,74 %
03.09.2016 19:58 22,7 C 21,1 C 17,8 C 72 % 0 lf 1013,9 hPa 0,0 l/m 2 min 0 min 20 W/m 0,0 km/h (0 Bft) 93,62 %
03.09.2016 20:00 22,6 C 20,6 C 17,8 C 72 % 0 lf 1013,9 hPa 0,0 l/m 0 min 0 min 18 W/m 2,1 km/h (1 Bft) 95,74 %
03.09.2016 20:02 22,6 C 20,6 C 17,8 C 72 % 0 lf 1013,9 hPa 0,0 l/m 0 min 0 min 15 W/m 0,0 km/h (0 Bft) 91,30 %
03.09.2016 20:04 22,5 C 20,6 C 17,8 C 72 % 0 lf 1014,0 hPa 0,0 l/m 0 min 0 min 13 W/m 2,1 km/h (1 Bft) 95,74 %
03.09.2016 20:06 22,4 C 20,0 C 17,8 C 72 % 0 lf 1014,1 hPa 0,0 l/m 0 min 0 min 11 W/m 0,0 km/h (0 Bft) 94,00 %
03.09.2016 20:08 22,4 C 20,0 C 17,2 C 73 % 0 lf 1014,1 hPa 0,0 l/m 0 min 0 min 10 W/m 0,0 km/h (0 Bft) 97,87 %
03.09.2016 20:10 22,3 C 20,0 C 17,2 C 73 % 0 lf 1014,1 hPa 0,0 l/m 0 min 0 min 9 W/m 0,0 km/h (0 Bft) 93,62 %
03.09.2016 20:12 22,2 C 20,0 C 17,2 C 73 % 0 lf 1014,1 hPa 0,0 l/m 0 min 0 min 8 W/m 0,0 km/h (0 Bft) 97,83 %
03.09.2016 20:14 22,2 C 20,0 C 17,2 C 73 % 0 lf 1014,1 hPa 0,0 l/m 0 min 0 min 7 W/m 0,0 km/h (0 Bft) 95,74 %
03.09.2016 20:16 22,1 C 20,0 C 17,2 C 74 % 0 lf 1014,1 hPa 0,0 l/m 0 min 0 min 7 W/m 0,0 km/h (0 Bft) 97,87 %
03.09.2016 20:18 22,0 C 20,0 C 17,2 C 74 % 0 lf 1014,1 hPa 0,0 l/m 0 min 0 min 6 W/m 0,0 km/h (0 Bft) 93,62 %
03.09.2016 20:20 21,9 C 19,4 C 17,2 C 74 % 0 lf 1014,1 hPa 0,0 l/m 0 min 0 min 5 W/m 0,0 km/h (0 Bft) 97,87 %
03.09.2016 20:22 21,9 C 19,4 C 17,2 C 74 % 0 lf 1014,1 hPa 0,0 l/m 0 min 0 min 5 W/m 0,0 km/h (0 Bft) 97,87 %
03.09.2016 20:24 21,8 C 19,4 C 17,2 C 75 % 0 lf 1014,1 hPa 0,0 l/m 0 min 0 min 5 W/m 0,0 km/h (0 Bft) 97,83 %
03.09.2016 20:26 21,7 C 19,4 C 17,2 C 75 % 0 lf 1014,1 hPa 0,0 l/m 0 min 0 min 5 W/m 0,0 km/h (0 Bft) 93,62 %
03.09.2016 20:28 21,7 C 19,4 C 17,2 C 75 % 0 lf 1014,1 hPa 0,0 l/m 0 min 0 min 5 W/m 0,0 km/h (0 Bft) 97,87 %
03.09.2016 20:30 21,6 C 19,4 C 17,2 C 76 % 0 lf 1014,1 hPa 0,0 l/m 0 min 0 min 5 W/m 0,0 km/h (0 Bft) 95,74 %
03.09.2016 20:32 21,6 C 19,4 C 17,2 C 76 % 0 lf 1014,1 hPa 0,0 l/m 0 min 0 min 5 W/m 0,0 km/h (0 Bft) 95,74 %
03.09.2016 20:34 21,5 C 19,4 C 17,2 C 76 % 0 lf 1014,1 hPa 0,0 l/m 0 min 0 min 5 W/m 0,0 km/h (0 Bft) 97,87 %
03.09.2016 20:36 21,4 C 19,4 C 17,2 C 76 % 0 lf 1014,0 hPa 0,0 l/m 0 min 0 min 5 W/m 0,0 km/h (0 Bft) 95,35 %
03.09.2016 20:38 21,4 C 19,4 C 17,2 C 76 % 0 lf 1014,0 hPa 0,0 l/m 0 min 0 min 5 W/m 0,0 km/h (0 Bft) 95,65 %
03.09.2016 20:40 21,3 C 19,4 C 17,2 C 76 % 0 lf 1014,0 hPa 0,0 l/m 0 min 0 min 5 W/m 0,0 km/h (0 Bft) 95,74 %
03.09.2016 20:42 21,2 C 19,4 C 17,2 C 77 % 0 lf 1014,0 hPa 0,0 l/m 0 min 0 min 5 W/m 0,0 km/h (0 Bft) 93,62 %
03.09.2016 20:44 21,2 C 19,4 C 17,2 C 77 % 0 lf 1014,1 hPa 0,0 l/m 0 min 0 min 5 W/m 0,0 km/h (0 Bft) 93,62 %
03.09.2016 20:46 21,1 C 19,4 C 17,2 C 77 % 0 lf 1014,1 hPa 0,0 l/m 0 min 0 min 5 W/m 0,0 km/h (0 Bft) 95,74 %
03.09.2016 20:48 21,1 C 19,4 C 17,2 C 77 % 0 lf 1014,1 hPa 0,0 l/m 0 min 0 min 5 W/m 0,0 km/h (0 Bft) 93,62 %
03.09.2016 20:50 21,0 C 19,4 C 17,2 C 77 % 0 lf 1014,1 hPa 0,0 l/m 0 min 0 min 5 W/m 0,0 km/h (0 Bft) 95,65 %
03.09.2016 20:52 21,0 C 19,4 C 17,2 C 77 % 0 lf 1014,1 hPa 0,0 l/m 0 min 0 min 5 W/m 0,0 km/h (0 Bft) 97,87 %
03.09.2016 20:54 20,9 C 19,4 C 17,2 C 78 % 0 lf 1014,1 hPa 0,0 l/m 0 min 0 min 5 W/m 0,0 km/h (0 Bft) 91,49 %
03.09.2016 20:56 20,9 C 19,4 C 17,2 C 78 % 1 lf 1014,0 hPa 0,0 l/m 0 min 0 min 5 W/m 0,0 km/h (0 Bft) 97,87 %
03.09.2016 20:58 20,8 C 19,4 C 17,2 C 78 % 1 lf 1014,0 hPa 0,0 l/m 0 min 0 min 5 W/m 0,0 km/h (0 Bft) 95,74 %
03.09.2016 21:00 20,8 C 19,4 C 17,2 C 79 % 1 lf 1014,0 hPa 0,0 l/m 0 min 0 min 5 W/m 0,0 km/h (0 Bft) 97,87 %
03.09.2016 21:02 20,8 C 19,4 C 17,2 C 79 % 1 lf 1014,0 hPa 0,0 l/m 0 min 0 min 5 W/m 0,0 km/h (0 Bft) 97,87 %
03.09.2016 21:04 20,7 C 18,9 C 17,2 C 79 % 1 lf 1014,1 hPa 0,0 l/m 0 min 0 min 5 W/m 0,0 km/h (0 Bft) 95,74 %
03.09.2016 21:06 20,7 C 19,4 C 17,2 C 79 % 1 lf 1014,0 hPa 0,0 l/m 0 min 0 min 5 W/m 0,0 km/h (0 Bft) 94,00 %
03.09.2016 21:08 20,7 C 19,4 C 17,2 C 80 % 1 lf 1014,1 hPa 0,0 l/m 0 min 0 min 5 W/m 0,0 km/h (0 Bft) 97,87 %
03.09.2016 21:10 20,6 C 19,4 C 17,2 C 80 % 1 lf 1014,0 hPa 0,0 l/m 0 min 0 min 5 W/m 0,0 km/h (0 Bft) 97,87 %
03.09.2016 21:12 20,6 C 19,4 C 17,2 C 80 % 1 lf 1014,0 hPa 0,0 l/m 0 min 0 min 3 W/m 0,0 km/h (0 Bft) 95,65 %
03.09.2016 21:14 20,6 C 19,4 C 17,2 C 80 % 1 lf 1013,9 hPa 0,0 l/m 0 min 0 min 5 W/m 0,0 km/h (0 Bft) 100,00 %
03.09.2016 21:16 20,5 C 19,4 C 17,2 C 80 % 1 lf 1013,9 hPa 0,0 l/m 0 min 0 min 3 W/m 0,0 km/h (0 Bft) 97,87 %
03.09.2016 21:18 20,4 C 18,9 C 17,2 C 81 % 1 lf 1013,9 hPa 0,0 l/m 0 min 0 min 5 W/m 0,0 km/h (0 Bft) 97,87 %
03.09.2016 21:20 20,4 C 18,9 C 17,2 C 81 % 1 lf 1014,0 hPa 0,0 l/m 0 min 0 min 5 W/m 4,2 km/h (1 Bft) 100,00 %
03.09.2016 21:22 20,4 C 18,9 C 17,2 C 81 % 1 lf 1014,0 hPa 0,0 l/m 0 min 0 min 5 W/m 4,2 km/h (1 Bft) 97,87 %
03.09.2016 21:24 20,3 C 18,9 C 17,2 C 81 % 1 lf 1014,0 hPa 0,0 l/m 0 min 0 min 5 W/m 4,2 km/h (1 Bft) 97,83 %
03.09.2016 21:26 20,3 C 18,9 C 16,7 C 81 % 1 lf 1014,0 hPa 0,0 l/m 0 min 0 min 3 W/m 0,0 km/h (0 Bft) 100,00 %
03.09.2016 21:28 20,3 C 18,9 C 16,7 C 81 % 1 lf 1013,9 hPa 0,0 l/m 0 min 0 min 5 W/m 2,1 km/h (1 Bft) 97,87 %
03.09.2016 21:30 20,3 C 18,9 C 16,7 C 82 % 1 lf 1013,9 hPa 0,0 l/m 0 min 0 min 3 W/m 4,2 km/h (1 Bft) 100,00 %
03.09.2016 21:32 20,2 C 18,9 C 16,7 C 82 % 1 lf 1013,8 hPa 0,0 l/m 0 min 0 min 3 W/m 6,3 km/h (2 Bft) 100,00 %
03.09.2016 21:34 20,2 C 19,4 C 16,7 C 82 % 1 lf 1013,7 hPa 0,0 l/m 0 min 0 min 3 W/m 6,3 km/h (2 Bft) 97,83 %
03.09.2016 21:36 20,1 C 18,9 C 16,7 C 83 % 1 lf 1013,7 hPa 0,0 l/m 0 min 0 min 3 W/m 4,2 km/h (1 Bft) 100,00 %
03.09.2016 21:38 20,1 C 19,4 C 16,7 C 83 % 1 lf 1013,7 hPa 0,0 l/m 0 min 0 min 3 W/m 6,3 km/h (2 Bft) 97,87 %
03.09.2016 21:40 20,1 C 19,4 C 16,7 C 83 % 1 lf 1013,7 hPa 0,0 l/m 0 min 0 min 5 W/m 6,3 km/h (2 Bft) 97,87 %
03.09.2016 21:42 20,0 C 19,4 C 17,2 C 83 % 1 lf 1013,7 hPa 0,0 l/m 0 min 0 min 5 W/m 8,4 km/h (2 Bft) 100,00 %
03.09.2016 21:44 19,9 C 19,4 C 17,2 C 83 % 1 lf 1013,8 hPa 0,0 l/m 0 min 0 min 5 W/m 6,3 km/h (2 Bft) 95,65 %
03.09.2016 21:46 19,9 C 18,9 C 17,2 C 83 % 1 lf 1013,9 hPa 0,0 l/m 0 min 0 min 5 W/m 4,2 km/h (1 Bft) 100,00 %
03.09.2016 21:48 19,9 C 18,9 C 17,2 C 83 % 1 lf 1013,9 hPa 0,0 l/m 0 min 0 min 5 W/m 4,2 km/h (1 Bft) 100,00 %
03.09.2016 21:50 19,9 C 18,9 C 17,2 C 83 % 1 lf 1013,9 hPa 0,0 l/m 0 min 0 min 3 W/m 6,3 km/h (2 Bft) 97,87 %
03.09.2016 21:52 19,8 C 18,9 C 17,2 C 83 % 1 lf 1013,8 hPa 0,0 l/m 0 min 0 min 5 W/m 6,3 km/h (2 Bft) 97,87 %
03.09.2016 21:54 19,8 C 19,4 C 17,2 C 83 % 1 lf 1013,9 hPa 0,0 l/m 0 min 0 min 5 W/m 8,4 km/h (2 Bft) 97,87 %
03.09.2016 21:56 19,8 C 19,4 C 17,2 C 83 % 1 lf 1014,0 hPa 0,0 l/m 0 min 0 min 5 W/m 6,3 km/h (2 Bft) 95,65 %
03.09.2016 21:58 19,7 C 19,4 C 17,2 C 83 % 1 lf 1014,0 hPa 0,0 l/m 0 min 0 min 5 W/m 6,3 km/h (2 Bft) 95,74 %
03.09.2016 22:00 19,7 C 19,4 C 17,2 C 83 % 1 lf 1014,0 hPa 0,0 l/m 0 min 0 min 3 W/m 6,3 km/h (2 Bft) 97,87 %
03.09.2016 22:02 19,7 C 19,4 C 17,2 C 83 % 1 lf 1014,0 hPa 0,0 l/m 0 min 0 min 4 W/m 4,2 km/h (1 Bft) 95,74 %
03.09.2016 22:04 19,7 C 19,4 C 17,2 C 83 % 1 lf 1014,0 hPa 0,0 l/m 0 min 0 min 4 W/m 6,3 km/h (2 Bft) 95,74 %
03.09.2016 22:06 19,7 C 19,4 C 17,2 C 83 % 1 lf 1014,0 hPa 0,0 l/m 0 min 0 min 5 W/m 8,4 km/h (2 Bft) 97,87 %
03.09.2016 22:08 19,6 C 19,4 C 17,2 C 83 % 1 lf 1014,0 hPa 0,0 l/m 0 min 0 min 5 W/m 4,2 km/h (1 Bft) 97,83 %
03.09.2016 22:10 19,6 C 19,4 C 17,2 C 83 % 1 lf 1014,0 hPa 0,0 l/m 0 min 0 min 5 W/m 4,2 km/h (1 Bft) 94,44 %
03.09.2016 22:12 19,6 C 19,4 C 17,2 C 83 % 1 lf 1014,0 hPa 0,0 l/m 0 min 0 min 5 W/m 6,3 km/h (2 Bft) 93,10 %
03.09.2016 22:14 19,6 C 19,4 C 17,2 C 83 % 1 lf 1014,0 hPa 0,0 l/m 0 min 0 min 3 W/m 8,4 km/h (2 Bft) 93,62 %
03.09.2016 22:16 19,6 C 19,4 C 17,2 C 83 % 1 lf 1014,0 hPa 0,0 l/m 0 min 0 min 5 W/m 6,3 km/h (2 Bft) 100,00 %
03.09.2016 22:18 19,6 C 19,4 C 17,2 C 83 % 1 lf 1014,0 hPa 0,0 l/m 0 min 0 min 5 W/m 6,3 km/h (2 Bft) 91,53 %
03.09.2016 22:20 19,5 C 19,4 C 17,2 C 83 % 0 lf 1014,0 hPa 0,0 l/m 0 min 0 min 5 W/m 6,3 km/h (2 Bft) 97,14 %
03.09.2016 22:22 19,5 C 19,4 C 17,2 C 83 % 1 lf 1014,0 hPa 0,0 l/m 0 min 0 min 5 W/m 8,4 km/h (2 Bft) 96,55 %
03.09.2016 22:24 19,5 C 19,4 C 17,2 C 83 % 0 lf 1014,0 hPa 0,0 l/m 0 min 0 min 5 W/m 6,3 km/h (2 Bft) 95,74 %
03.09.2016 22:26 19,5 C 19,4 C 17,2 C 83 % 0 lf 1014,0 hPa 0,0 l/m 0 min 0 min 5 W/m 8,4 km/h (2 Bft) 94,29 %
03.09.2016 22:28 19,5 C 19,4 C 17,2 C 83 % 0 lf 1013,9 hPa 0,0 l/m 0 min 0 min 5 W/m 6,3 km/h (2 Bft) 94,92 %
03.09.2016 22:30 19,5 C 19,4 C 17,2 C 83 % 1 lf 1013,9 hPa 0,0 l/m 0 min 0 min 5 W/m 8,4 km/h (2 Bft) 93,62 %
03.09.2016 22:32 19,4 C 19,4 C 17,2 C 83 % 0 lf 1013,8 hPa 0,0 l/m 0 min 0 min 5 W/m 6,3 km/h (2 Bft) 94,44 %
03.09.2016 22:34 19,4 C 19,4 C 17,2 C 83 % 0 lf 1013,8 hPa 0,0 l/m 0 min 0 min 5 W/m 4,2 km/h (1 Bft) 91,30 %
03.09.2016 22:36 19,4 C 19,4 C 17,2 C 82 % 0 lf 1013,8 hPa 0,0 l/m 0 min 0 min 5 W/m 4,2 km/h (1 Bft) 88,00 %
03.09.2016 22:38 19,4 C 19,4 C 16,7 C 82 % 0 lf 1013,8 hPa 0,0 l/m 0 min 0 min 5 W/m 6,3 km/h (2 Bft) 95,74 %
03.09.2016 22:40 19,4 C 19,4 C 17,2 C 82 % 0 lf 1013,7 hPa 0,0 l/m 0 min 0 min 5 W/m 6,3 km/h (2 Bft) 91,49 %
03.09.2016 22:42 19,4 C 18,9 C 17,2 C 82 % 0 lf 1013,8 hPa 0,0 l/m 0 min 0 min 5 W/m 4,2 km/h (1 Bft) 95,74 %
03.09.2016 22:44 19,4 C 18,9 C 17,2 C 82 % 0 lf 1013,7 hPa 0,0 l/m 0 min 0 min 5 W/m 6,3 km/h (2 Bft) 95,74 %
03.09.2016 22:46 19,4 C 18,9 C 17,2 C 82 % 0 lf 1013,7 hPa 0,0 l/m 0 min 0 min 5 W/m 6,3 km/h (2 Bft) 95,65 %
03.09.2016 22:48 19,4 C 18,9 C 17,2 C 82 % 0 lf 1013,7 hPa 0,0 l/m 0 min 0 min 5 W/m 6,3 km/h (2 Bft) 93,62 %
03.09.2016 22:50 19,4 C 19,4 C 17,2 C 82 % 0 lf 1013,7 hPa 0,0 l/m 0 min 0 min 5 W/m 4,2 km/h (1 Bft) 95,74 %
03.09.2016 22:52 19,4 C 19,4 C 17,2 C 82 % 0 lf 1013,7 hPa 0,0 l/m 0 min 0 min 5 W/m 4,2 km/h (1 Bft) 87,23 %
03.09.2016 22:54 19,4 C 19,4 C 16,7 C 82 % 0 lf 1013,7 hPa 0,0 l/m 0 min 0 min 5 W/m 4,2 km/h (1 Bft) 95,74 %
03.09.2016 22:56 19,4 C 19,4 C 16,7 C 82 % 0 lf 1013,7 hPa 0,0 l/m 0 min 0 min 5 W/m 4,2 km/h (1 Bft) 91,30 %
03.09.2016 22:58 19,4 C 19,4 C 16,7 C 82 % 1 lf 1013,7 hPa 0,0 l/m 0 min 0 min 5 W/m 4,2 km/h (1 Bft) 95,74 %
03.09.2016 23:00 19,4 C 19,4 C 16,7 C 82 % 1 lf 1013,6 hPa 0,0 l/m 0 min 0 min 5 W/m 6,3 km/h (2 Bft) 97,87 %
03.09.2016 23:02 19,4 C 18,9 C 16,7 C 82 % 1 lf 1013,7 hPa 0,0 l/m 0 min 0 min 5 W/m 6,3 km/h (2 Bft) 95,83 %
03.09.2016 23:04 19,4 C 18,9 C 16,7 C 82 % 1 lf 1013,7 hPa 0,0 l/m 0 min 0 min 5 W/m 6,3 km/h (2 Bft) 97,87 %
03.09.2016 23:06 19,4 C 18,9 C 16,7 C 83 % 1 lf 1013,6 hPa 0,0 l/m 0 min 0 min 5 W/m 8,4 km/h (2 Bft) 97,87 %
03.09.2016 23:08 19,4 C 18,9 C 16,7 C 83 % 1 lf 1013,6 hPa 0,0 l/m 0 min 0 min 5 W/m 6,3 km/h (2 Bft) 97,83 %
03.09.2016 23:10 19,4 C 18,9 C 16,7 C 83 % 1 lf 1013,6 hPa 0,0 l/m 0 min 0 min 5 W/m 8,4 km/h (2 Bft) 91,49 %
03.09.2016 23:12 19,4 C 18,9 C 16,7 C 83 % 1 lf 1013,6 hPa 0,0 l/m 0 min 0 min 5 W/m 8,4 km/h (2 Bft) 100,00 %
03.09.2016 23:14 19,4 C 18,9 C 16,7 C 83 % 1 lf 1013,5 hPa 0,0 l/m 0 min 0 min 5 W/m 8,4 km/h (2 Bft) 97,87 %
03.09.2016 23:16 19,3 C 18,9 C 16,7 C 83 % 1 lf 1013,5 hPa 0,0 l/m 0 min 0 min 5 W/m 8,4 km/h (2 Bft) 100,00 %
03.09.2016 23:18 19,3 C 18,9 C 16,7 C 83 % 1 lf 1013,5 hPa 0,0 l/m 0 min 0 min 5 W/m 8,4 km/h (2 Bft) 97,87 %
03.09.2016 23:20 19,3 C 18,9 C 16,1 C 83 % 1 lf 1013,5 hPa 0,0 l/m 0 min 0 min 5 W/m 8,4 km/h (2 Bft) 97,83 %
03.09.2016 23:22 19,3 C 18,9 C 16,1 C 83 % 1 lf 1013,5 hPa 0,0 l/m 0 min 0 min 5 W/m 6,3 km/h (2 Bft) 100,00 %
03.09.2016 23:24 19,3 C 18,9 C 16,1 C 83 % 1 lf 1013,5 hPa 0,0 l/m 0 min 0 min 5 W/m 6,3 km/h (2 Bft) 100,00 %
03.09.2016 23:26 19,3 C 18,3 C 16,1 C 83 % 1 lf 1013,5 hPa 0,0 l/m 0 min 0 min 5 W/m 6,3 km/h (2 Bft) 93,62 %
03.09.2016 23:28 19,3 C 18,3 C 15,6 C 83 % 1 lf 1013,5 hPa 0,0 l/m 0 min 0 min 5 W/m 4,2 km/h (1 Bft) 95,74 %
03.09.2016 23:30 19,2 C 18,3 C 15,6 C 83 % 1 lf 1013,6 hPa 0,0 l/m 0 min 0 min 5 W/m 6,3 km/h (2 Bft) 97,87 %
03.09.2016 23:32 19,2 C 18,3 C 15,6 C 83 % 1 lf 1013,5 hPa 0,0 l/m 0 min 0 min 5 W/m 4,2 km/h (1 Bft) 97,92 %
03.09.2016 23:34 19,2 C 18,3 C 15,6 C 83 % 1 lf 1013,5 hPa 0,0 l/m 0 min 0 min 5 W/m 4,2 km/h (1 Bft) 97,87 %
03.09.2016 23:36 19,2 C 18,3 C 15,6 C 83 % 1 lf 1013,5 hPa 0,0 l/m 0 min 0 min 5 W/m 4,2 km/h (1 Bft) 95,83 %
03.09.2016 23:38 19,1 C 18,3 C 15,6 C 83 % 1 lf 1013,5 hPa 0,0 l/m 0 min 0 min 5 W/m 4,2 km/h (1 Bft) 93,62 %
03.09.2016 23:40 19,1 C 17,8 C 15,6 C 83 % 1 lf 1013,4 hPa 0,0 l/m 0 min 0 min 5 W/m 4,2 km/h (1 Bft) 95,74 %
03.09.2016 23:42 19,1 C 17,8 C 15,6 C 83 % 1 lf 1013,4 hPa 0,0 l/m 0 min 0 min 5 W/m 4,2 km/h (1 Bft) 95,65 %
03.09.2016 23:44 19,1 C 17,8 C 15,6 C 83 % 1 lf 1013,5 hPa 0,0 l/m 0 min 0 min 5 W/m 6,3 km/h (2 Bft) 93,62 %
03.09.2016 23:46 19,0 C 17,8 C 15,6 C 83 % 1 lf 1013,5 hPa 0,0 l/m 0 min 0 min 5 W/m 6,3 km/h (2 Bft) 97,87 %
03.09.2016 23:48 19,0 C 17,8 C 15,6 C 83 % 1 lf 1013,4 hPa 0,0 l/m 0 min 0 min 5 W/m 8,4 km/h (2 Bft) 97,87 %
03.09.2016 23:50 18,9 C 17,8 C 15,6 C 83 % 1 lf 1013,4 hPa 0,0 l/m 0 min 0 min 5 W/m 4,2 km/h (1 Bft) 95,74 %
03.09.2016 23:52 18,9 C 17,8 C 15,6 C 83 % 1 lf 1013,3 hPa 0,0 l/m 0 min 0 min 5 W/m 6,3 km/h (2 Bft) 97,87 %
03.09.2016 23:54 18,9 C 18,3 C 15,6 C 83 % 1 lf 1013,3 hPa 0,0 l/m 0 min 0 min 5 W/m 6,3 km/h (2 Bft) 97,83 %
03.09.2016 23:56 18,8 C 18,3 C 15,6 C 83 % 1 lf 1013,3 hPa 0,0 l/m 0 min 0 min 5 W/m 6,3 km/h (2 Bft) 95,74 %
03.09.2016 23:58 18,8 C 18,3 C 15,6 C 83 % 1 lf 1013,4 hPa 0,0 l/m 0 min 0 min 5 W/m 8,4 km/h (2 Bft) 97,87 %
_ Min-Zeit 03:58 02:54 02:38 16:04 00:00 23:52 - - - - 01:18 00:02
Minimum _ 15,3 C 14,4 C 12,8 C 63 % 0 lf 1013,3 hPa - - - - 0,0 km/h (0 Bft) 10,53 %
_ Max-Zeit 16:42 14:16 15:00 04:06 00:28 00:32 00:00 07:10 00:05 14:14 00:30 00:06
Maximum _ 25,2 C 35,0 C 32,8 C 86 % 15 lf 1018,8 hPa 0,0 l/m 2 min 2 min 956 W/m 29,3 km/h
N-NW (5 Bft)
100,00 %
Durchschnitt _ 19,7 C 21,4 C 18,7 C 77 % 1 lf 1016,6 hPa #0,0 l/m #8:16 h #21 min. 210 W/m 9,1 km/h (2 Bft) 96,13 %
© 2016 W. Hausmann